Time,TemperatureF,DewpointF,PressureIn,WindDirection,WindDirectionDegrees,WindSpeedMPH,WindSpeedGustMPH,Humidity,HourlyPrecipIn,Conditions,Clouds,dailyrainin,SoftwareType,DateUTC
2013-06-12 00:01:00,57.8,54.6,29.86,SW,233,0.0,1.0,89,0.00,,,0.00,Wunderground v.1.15,2013-06-12 04:01:00,
2013-06-12 00:02:00,57.9,54.7,29.86,SW,233,0.0,1.0,89,0.00,,,0.00,Wunderground v.1.15,2013-06-12 04:02:00,
2013-06-12 00:03:00,57.9,54.7,29.86,SW,233,0.0,1.0,89,0.00,,,0.00,Wunderground v.1.15,2013-06-12 04:03:00,
2013-06-12 00:06:00,58.0,54.8,29.86,WSW,251,0.0,1.0,89,0.00,,,0.00,Wunderground v.1.15,2013-06-12 04:06:00,
2013-06-12 00:08:00,58.0,54.8,29.86,WSW,251,0.0,1.0,89,0.00,,,0.00,Wunderground v.1.15,2013-06-12 04:08:00,
2013-06-12 00:09:00,58.0,54.8,29.86,WSW,253,0.0,1.0,89,0.00,,,0.00,Wunderground v.1.15,2013-06-12 04:09:00,
2013-06-12 00:10:00,58.0,54.8,29.86,WSW,251,0.0,0.0,89,0.00,,,0.00,Wunderground v.1.15,2013-06-12 04:10:00,
2013-06-12 00:13:00,58.0,54.8,29.86,WSW,251,0.0,0.0,89,0.00,,,0.00,Wunderground v.1.15,2013-06-12 04:13:00,
2013-06-12 00:14:00,58.0,54.8,29.86,WSW,252,0.0,0.0,89,0.00,,,0.00,Wunderground v.1.15,2013-06-12 04:14:00,
2013-06-12 00:15:00,58.0,54.8,29.86,WSW,252,0.0,0.0,89,0.00,,,0.00,Wunderground v.1.15,2013-06-12 04:15:00,
2013-06-12 00:18:00,58.0,55.1,29.86,WSW,252,0.0,0.0,90,0.00,,,0.00,Wunderground v.1.15,2013-06-12 04:18:00,
2013-06-12 00:21:00,58.0,55.1,29.86,WSW,252,0.0,0.0,90,0.00,,,0.00,Wunderground v.1.15,2013-06-12 04:21:00,
2013-06-12 00:22:00,58.0,55.1,29.86,WSW,253,0.0,0.0,90,0.00,,,0.00,Wunderground v.1.15,2013-06-12 04:22:00,
2013-06-12 00:23:00,58.0,54.8,29.86,WSW,252,0.0,0.0,89,0.00,,,0.00,Wunderground v.1.15,2013-06-12 04:23:00,
2013-06-12 00:26:00,58.1,55.2,29.86,WSW,253,0.0,0.0,90,0.00,,,0.00,Wunderground v.1.15,2013-06-12 04:26:00,
2013-06-12 00:27:00,58.1,54.9,29.86,WSW,253,0.0,0.0,89,0.00,,,0.00,Wunderground v.1.15,2013-06-12 04:27:00,
2013-06-12 00:28:00,58.1,54.9,29.86,WSW,251,0.0,0.0,89,0.00,,,0.00,Wunderground v.1.15,2013-06-12 04:28:00,
2013-06-12 00:32:00,58.1,55.2,29.85,West,264,0.0,0.0,90,0.00,,,0.00,Wunderground v.1.15,2013-06-12 04:32:00,
2013-06-12 00:33:00,58.1,54.9,29.85,West,264,0.0,0.0,89,0.00,,,0.00,Wunderground v.1.15,2013-06-12 04:33:00,
2013-06-12 00:34:00,58.0,54.8,29.85,West,264,0.0,0.0,89,0.00,,,0.00,Wunderground v.1.15,2013-06-12 04:34:00,
2013-06-12 00:35:00,58.0,54.8,29.85,West,264,0.0,0.0,89,0.00,,,0.00,Wunderground v.1.15,2013-06-12 04:35:00,
2013-06-12 00:37:00,58.0,55.1,29.85,West,264,0.0,0.0,90,0.00,,,0.00,Wunderground v.1.15,2013-06-12 04:37:00,
2013-06-12 00:39:00,58.0,55.1,29.85,West,264,0.0,0.0,90,0.00,,,0.00,Wunderground v.1.15,2013-06-12 04:39:00,
2013-06-12 00:40:00,58.0,55.1,29.85,West,264,0.0,0.0,90,0.00,,,0.00,Wunderground v.1.15,2013-06-12 04:40:00,
2013-06-12 00:41:00,58.0,55.1,29.85,West,264,0.0,0.0,90,0.00,,,0.00,Wunderground v.1.15,2013-06-12 04:41:00,
2013-06-12 00:46:00,58.0,55.1,29.85,West,264,0.0,0.0,90,0.00,,,0.00,Wunderground v.1.15,2013-06-12 04:46:00,
2013-06-12 00:47:00,58.0,55.1,29.85,West,264,0.0,0.0,90,0.00,,,0.00,Wunderground v.1.15,2013-06-12 04:47:00,
2013-06-12 00:48:00,58.0,55.1,29.85,West,264,0.0,0.0,90,0.00,,,0.00,Wunderground v.1.15,2013-06-12 04:48:00,
2013-06-12 00:49:00,58.0,55.1,29.85,West,264,0.0,0.0,90,0.00,,,0.00,Wunderground v.1.15,2013-06-12 04:49:00,
2013-06-12 00:53:00,58.0,55.1,29.85,West,264,0.0,0.0,90,0.00,,,0.00,Wunderground v.1.15,2013-06-12 04:53:00,
2013-06-12 00:54:00,58.0,55.1,29.85,West,264,0.0,0.0,90,0.00,,,0.00,Wunderground v.1.15,2013-06-12 04:54:00,
2013-06-12 00:55:00,58.0,55.1,29.85,West,264,0.0,0.0,90,0.00,,,0.00,Wunderground v.1.15,2013-06-12 04:55:00,
2013-06-12 00:56:00,58.0,55.1,29.85,West,264,0.0,0.0,90,0.00,,,0.00,Wunderground v.1.15,2013-06-12 04:56:00,
2013-06-12 00:58:00,58.0,55.1,29.85,West,262,0.0,1.0,90,0.00,,,0.00,Wunderground v.1.15,2013-06-12 04:58:00,
2013-06-12 01:00:00,58.0,55.1,29.86,West,262,0.0,0.0,90,0.00,,,0.00,Wunderground v.1.15,2013-06-12 05:00:00,
2013-06-12 01:04:00,58.0,55.1,29.86,West,262,0.0,0.0,90,0.00,,,0.00,Wunderground v.1.15,2013-06-12 05:04:00,
2013-06-12 01:05:00,58.0,55.1,29.86,West,262,0.0,0.0,90,0.00,,,0.00,Wunderground v.1.15,2013-06-12 05:05:00,
2013-06-12 01:06:00,58.0,55.1,29.85,West,262,0.0,0.0,90,0.00,,,0.00,Wunderground v.1.15,2013-06-12 05:06:00,
2013-06-12 01:09:00,58.0,55.1,29.86,West,270,0.0,1.0,90,0.00,,,0.00,Wunderground v.1.15,2013-06-12 05:09:00,
2013-06-12 01:10:00,58.0,55.1,29.86,West,270,0.0,0.0,90,0.00,,,0.00,Wunderground v.1.15,2013-06-12 05:10:00,
2013-06-12 01:11:00,57.9,55.0,29.86,West,269,0.0,0.0,90,0.00,,,0.00,Wunderground v.1.15,2013-06-12 05:11:00,
2013-06-12 01:15:00,57.9,55.0,29.85,West,270,0.0,0.0,90,0.00,,,0.00,Wunderground v.1.15,2013-06-12 05:15:00,
2013-06-12 01:17:00,57.8,54.9,29.85,West,270,0.0,0.0,90,0.00,,,0.00,Wunderground v.1.15,2013-06-12 05:17:00,
2013-06-12 01:18:00,57.8,54.9,29.85,West,270,0.0,0.0,90,0.00,,,0.00,Wunderground v.1.15,2013-06-12 05:18:00,
2013-06-12 01:20:00,57.8,54.9,29.85,West,270,0.0,0.0,90,0.00,,,0.00,Wunderground v.1.15,2013-06-12 05:20:00,
2013-06-12 01:22:00,57.7,54.8,29.86,West,270,0.0,0.0,90,0.00,,,0.00,Wunderground v.1.15,2013-06-12 05:22:00,
2013-06-12 01:24:00,57.7,54.8,29.86,West,270,0.0,0.0,90,0.00,,,0.00,Wunderground v.1.15,2013-06-12 05:24:00,
2013-06-12 01:26:00,57.6,54.7,29.86,West,270,0.0,0.0,90,0.00,,,0.00,Wunderground v.1.15,2013-06-12 05:26:00,
2013-06-12 01:27:00,57.6,54.7,29.86,West,270,0.0,0.0,90,0.00,,,0.00,Wunderground v.1.15,2013-06-12 05:27:00,
2013-06-12 01:29:00,57.5,54.6,29.86,West,270,0.0,0.0,90,0.00,,,0.00,Wunderground v.1.15,2013-06-12 05:29:00,
2013-06-12 01:30:00,57.5,54.6,29.86,West,270,0.0,0.0,90,0.00,,,0.00,Wunderground v.1.15,2013-06-12 05:30:00,
2013-06-12 01:32:00,57.5,54.6,29.86,West,264,0.0,0.0,90,0.00,,,0.00,Wunderground v.1.15,2013-06-12 05:32:00,
2013-06-12 01:33:00,57.4,54.5,29.86,West,264,0.0,0.0,90,0.00,,,0.00,Wunderground v.1.15,2013-06-12 05:33:00,
2013-06-12 01:36:00,57.3,54.7,29.86,West,264,0.0,0.0,91,0.00,,,0.00,Wunderground v.1.15,2013-06-12 05:36:00,
2013-06-12 01:40:00,57.2,54.6,29.86,West,264,0.0,0.0,91,0.00,,,0.00,Wunderground v.1.15,2013-06-12 05:40:00,
2013-06-12 01:41:00,57.2,54.6,29.86,West,264,0.0,0.0,91,0.00,,,0.00,Wunderground v.1.15,2013-06-12 05:41:00,
2013-06-12 01:42:00,57.1,54.5,29.86,West,264,0.0,0.0,91,0.00,,,0.00,Wunderground v.1.15,2013-06-12 05:42:00,
2013-06-12 01:43:00,57.1,54.5,29.86,West,264,0.0,0.0,91,0.00,,,0.00,Wunderground v.1.15,2013-06-12 05:43:00,
2013-06-12 01:46:00,57.1,54.5,29.86,West,267,0.0,0.0,91,0.00,,,0.00,Wunderground v.1.15,2013-06-12 05:46:00,
2013-06-12 01:48:00,57.1,54.5,29.86,West,267,0.0,0.0,91,0.00,,,0.00,Wunderground v.1.15,2013-06-12 05:48:00,
2013-06-12 01:49:00,57.1,54.5,29.86,West,267,0.0,0.0,91,0.00,,,0.00,Wunderground v.1.15,2013-06-12 05:49:00,
2013-06-12 01:51:00,57.1,54.5,29.86,West,267,0.0,0.0,91,0.00,,,0.00,Wunderground v.1.15,2013-06-12 05:51:00,
2013-06-12 01:53:00,57.1,54.5,29.86,West,267,0.0,0.0,91,0.00,,,0.00,Wunderground v.1.15,2013-06-12 05:53:00,
2013-06-12 01:54:00,57.1,54.5,29.86,West,266,0.0,0.0,91,0.00,,,0.00,Wunderground v.1.15,2013-06-12 05:54:00,
2013-06-12 01:58:00,56.9,54.3,29.86,West,267,0.0,0.0,91,0.00,,,0.00,Wunderground v.1.15,2013-06-12 05:58:00,
2013-06-12 01:59:00,56.9,54.3,29.86,West,267,0.0,0.0,91,0.00,,,0.00,Wunderground v.1.15,2013-06-12 05:59:00,
2013-06-12 02:01:00,56.8,54.2,29.86,West,266,0.0,0.0,91,0.00,,,0.00,Wunderground v.1.15,2013-06-12 06:01:00,
2013-06-12 02:02:00,56.8,54.5,29.86,West,267,0.0,0.0,92,0.00,,,0.00,Wunderground v.1.15,2013-06-12 06:02:00,
2013-06-12 02:04:00,56.8,54.5,29.86,West,267,0.0,1.0,92,0.00,,,0.00,Wunderground v.1.15,2013-06-12 06:04:00,
2013-06-12 02:06:00,56.9,54.6,29.86,West,267,0.0,1.0,92,0.00,,,0.00,Wunderground v.1.15,2013-06-12 06:06:00,
2013-06-12 02:07:00,56.9,54.6,29.86,West,262,0.0,1.0,92,0.00,,,0.00,Wunderground v.1.15,2013-06-12 06:07:00,
2013-06-12 02:10:00,57.0,54.7,29.86,WSW,257,0.0,0.0,92,0.00,,,0.00,Wunderground v.1.15,2013-06-12 06:10:00,
2013-06-12 02:11:00,57.0,54.7,29.86,WSW,257,0.0,0.0,92,0.00,,,0.00,Wunderground v.1.15,2013-06-12 06:11:00,
2013-06-12 02:12:00,57.0,54.7,29.86,SW,224,0.0,0.0,92,0.00,,,0.00,Wunderground v.1.15,2013-06-12 06:12:00,
2013-06-12 02:13:00,57.0,54.7,29.86,SW,224,0.0,0.0,92,0.00,,,0.00,Wunderground v.1.15,2013-06-12 06:13:00,
2013-06-12 02:15:00,57.0,54.7,29.86,SW,224,0.0,0.0,92,0.00,,,0.00,Wunderground v.1.15,2013-06-12 06:15:00,
2013-06-12 02:16:00,57.0,54.4,29.86,SW,224,0.0,0.0,91,0.00,,,0.00,Wunderground v.1.15,2013-06-12 06:16:00,
2013-06-12 02:18:00,56.9,54.3,29.86,SW,224,0.0,0.0,91,0.00,,,0.00,Wunderground v.1.15,2013-06-12 06:18:00,
2013-06-12 02:19:00,56.8,54.2,29.85,SW,224,0.0,0.0,91,0.00,,,0.00,Wunderground v.1.15,2013-06-12 06:19:00,
2013-06-12 02:20:00,56.8,54.2,29.85,SW,224,0.0,0.0,91,0.00,,,0.00,Wunderground v.1.15,2013-06-12 06:20:00,
2013-06-12 02:24:00,56.7,54.4,29.85,SW,224,0.0,0.0,92,0.00,,,0.00,Wunderground v.1.15,2013-06-12 06:24:00,
2013-06-12 02:25:00,56.7,54.4,29.85,SW,224,0.0,0.0,92,0.00,,,0.00,Wunderground v.1.15,2013-06-12 06:25:00,
2013-06-12 02:26:00,56.7,54.4,29.85,WSW,252,0.0,0.0,92,0.00,,,0.00,Wunderground v.1.15,2013-06-12 06:26:00,
2013-06-12 02:29:00,56.7,54.4,29.85,WSW,251,0.0,0.0,92,0.00,,,0.00,Wunderground v.1.15,2013-06-12 06:29:00,
2013-06-12 02:30:00,56.7,54.4,29.85,WSW,251,0.0,0.0,92,0.00,,,0.00,Wunderground v.1.15,2013-06-12 06:30:00,
2013-06-12 02:31:00,56.7,54.4,29.85,WSW,252,0.0,0.0,92,0.00,,,0.00,Wunderground v.1.15,2013-06-12 06:31:00,
2013-06-12 02:33:00,56.7,54.4,29.86,WSW,251,0.0,0.0,92,0.00,,,0.00,Wunderground v.1.15,2013-06-12 06:33:00,
2013-06-12 02:34:00,56.7,54.4,29.86,WSW,251,0.0,0.0,92,0.00,,,0.00,Wunderground v.1.15,2013-06-12 06:34:00,
2013-06-12 02:35:00,56.7,54.4,29.86,WSW,252,0.0,0.0,92,0.00,,,0.00,Wunderground v.1.15,2013-06-12 06:35:00,
2013-06-12 02:36:00,56.7,54.4,29.86,WSW,251,0.0,0.0,92,0.00,,,0.00,Wunderground v.1.15,2013-06-12 06:36:00,
2013-06-12 02:39:00,56.8,54.5,29.86,WSW,252,0.0,0.0,92,0.00,,,0.00,Wunderground v.1.15,2013-06-12 06:39:00,
2013-06-12 02:41:00,56.8,54.5,29.86,WSW,252,0.0,0.0,92,0.00,,,0.00,Wunderground v.1.15,2013-06-12 06:41:00,
2013-06-12 02:42:00,56.8,54.5,29.86,WSW,251,0.0,0.0,92,0.00,,,0.00,Wunderground v.1.15,2013-06-12 06:42:00,
2013-06-12 02:44:00,56.9,54.6,29.86,WSW,249,0.0,1.0,92,0.00,,,0.00,Wunderground v.1.15,2013-06-12 06:44:00,
2013-06-12 02:45:00,56.9,54.6,29.86,WSW,249,0.0,1.0,92,0.00,,,0.00,Wunderground v.1.15,2013-06-12 06:45:00,
2013-06-12 02:46:00,56.9,54.6,29.87,WSW,250,0.0,1.0,92,0.00,,,0.00,Wunderground v.1.15,2013-06-12 06:46:00,
2013-06-12 02:49:00,57.0,54.4,29.87,WSW,248,0.0,1.0,91,0.00,,,0.00,Wunderground v.1.15,2013-06-12 06:49:00,
2013-06-12 02:50:00,57.0,54.4,29.87,WSW,249,0.0,0.0,91,0.00,,,0.00,Wunderground v.1.15,2013-06-12 06:50:00,
2013-06-12 02:51:00,57.0,54.4,29.87,WSW,249,0.0,0.0,91,0.00,,,0.00,Wunderground v.1.15,2013-06-12 06:51:00,
2013-06-12 02:55:00,57.0,54.4,29.87,WSW,247,0.0,0.0,91,0.00,,,0.00,Wunderground v.1.15,2013-06-12 06:55:00,
2013-06-12 02:56:00,57.0,54.1,29.86,WSW,248,0.0,0.0,90,0.00,,,0.00,Wunderground v.1.15,2013-06-12 06:56:00,
2013-06-12 02:57:00,56.9,54.0,29.86,WSW,248,0.0,0.0,90,0.00,,,0.00,Wunderground v.1.15,2013-06-12 06:57:00,
2013-06-12 02:59:00,56.8,54.2,29.87,WSW,248,0.0,0.0,91,0.00,,,0.00,Wunderground v.1.15,2013-06-12 06:59:00,
2013-06-12 03:03:00,56.8,54.2,29.86,WSW,248,0.0,0.0,91,0.00,,,0.00,Wunderground v.1.15,2013-06-12 07:03:00,
2013-06-12 03:04:00,56.7,54.1,29.86,WSW,248,0.0,0.0,91,0.00,,,0.00,Wunderground v.1.15,2013-06-12 07:04:00,
2013-06-12 03:05:00,56.7,54.1,29.86,WSW,248,0.0,0.0,91,0.00,,,0.00,Wunderground v.1.15,2013-06-12 07:05:00,
2013-06-12 03:08:00,56.5,53.9,29.86,WSW,248,0.0,0.0,91,0.00,,,0.00,Wunderground v.1.15,2013-06-12 07:08:00,
2013-06-12 03:10:00,56.4,53.8,29.86,WSW,248,0.0,0.0,91,0.00,,,0.00,Wunderground v.1.15,2013-06-12 07:10:00,
2013-06-12 03:11:00,56.3,53.7,29.86,WSW,248,0.0,0.0,91,0.00,,,0.00,Wunderground v.1.15,2013-06-12 07:11:00,
2013-06-12 03:14:00,56.0,53.4,29.86,WSW,248,0.0,0.0,91,0.00,,,0.00,Wunderground v.1.15,2013-06-12 07:14:00,
2013-06-12 03:16:00,55.8,53.2,29.86,WSW,248,0.0,0.0,91,0.00,,,0.00,Wunderground v.1.15,2013-06-12 07:16:00,
2013-06-12 03:17:00,55.8,53.2,29.86,WSW,248,0.0,0.0,91,0.00,,,0.00,Wunderground v.1.15,2013-06-12 07:17:00,
2013-06-12 03:20:00,55.8,53.5,29.86,WSW,248,0.0,0.0,92,0.00,,,0.00,Wunderground v.1.15,2013-06-12 07:20:00,
2013-06-12 03:21:00,55.8,53.5,29.86,WSW,248,0.0,0.0,92,0.00,,,0.00,Wunderground v.1.15,2013-06-12 07:21:00,
2013-06-12 03:22:00,55.8,53.5,29.86,WSW,248,0.0,0.0,92,0.00,,,0.00,Wunderground v.1.15,2013-06-12 07:22:00,
2013-06-12 03:26:00,55.6,53.3,29.86,WSW,248,0.0,0.0,92,0.00,,,0.00,Wunderground v.1.15,2013-06-12 07:26:00,
2013-06-12 03:28:00,55.5,53.5,29.86,WSW,248,0.0,0.0,93,0.00,,,0.00,Wunderground v.1.15,2013-06-12 07:28:00,
2013-06-12 03:29:00,55.5,53.5,29.86,WSW,248,0.0,0.0,93,0.00,,,0.00,Wunderground v.1.15,2013-06-12 07:29:00,
2013-06-12 03:31:00,55.3,53.3,29.86,WSW,248,0.0,0.0,93,0.00,,,0.00,Wunderground v.1.15,2013-06-12 07:31:00,
2013-06-12 03:33:00,55.2,53.2,29.86,WSW,248,0.0,0.0,93,0.00,,,0.00,Wunderground v.1.15,2013-06-12 07:33:00,
2013-06-12 03:35:00,55.0,53.0,29.86,WSW,248,0.0,0.0,93,0.00,,,0.00,Wunderground v.1.15,2013-06-12 07:35:00,
2013-06-12 03:37:00,54.9,52.9,29.86,WSW,248,0.0,0.0,93,0.00,,,0.00,Wunderground v.1.15,2013-06-12 07:37:00,
2013-06-12 03:38:00,54.9,52.9,29.86,WSW,247,0.0,0.0,93,0.00,,,0.00,Wunderground v.1.15,2013-06-12 07:38:00,
2013-06-12 03:40:00,54.8,53.1,29.86,WSW,248,0.0,0.0,94,0.00,,,0.00,Wunderground v.1.15,2013-06-12 07:40:00,
2013-06-12 03:42:00,54.8,53.1,29.86,WSW,248,0.0,0.0,94,0.00,,,0.00,Wunderground v.1.15,2013-06-12 07:42:00,
2013-06-12 03:43:00,54.8,53.1,29.86,WSW,248,0.0,0.0,94,0.00,,,0.00,Wunderground v.1.15,2013-06-12 07:43:00,
2013-06-12 03:45:00,54.7,53.0,29.86,WSW,247,0.0,0.0,94,0.00,,,0.00,Wunderground v.1.15,2013-06-12 07:45:00,
2013-06-12 03:49:00,54.6,52.9,29.86,WSW,248,0.0,0.0,94,0.00,,,0.00,Wunderground v.1.15,2013-06-12 07:49:00,
2013-06-12 03:50:00,54.6,52.9,29.86,WSW,249,0.0,0.0,94,0.00,,,0.00,Wunderground v.1.15,2013-06-12 07:50:00,
2013-06-12 03:51:00,54.6,52.9,29.86,WSW,248,0.0,0.0,94,0.00,,,0.00,Wunderground v.1.15,2013-06-12 07:51:00,
2013-06-12 03:53:00,54.5,52.8,29.86,WSW,248,0.0,0.0,94,0.00,,,0.00,Wunderground v.1.15,2013-06-12 07:53:00,
2013-06-12 03:54:00,54.5,52.8,29.86,WSW,248,0.0,0.0,94,0.00,,,0.00,Wunderground v.1.15,2013-06-12 07:54:00,
2013-06-12 03:58:00,54.3,52.6,29.86,WSW,247,0.0,0.0,94,0.00,,,0.00,Wunderground v.1.15,2013-06-12 07:58:00,
2013-06-12 04:00:00,54.2,52.5,29.86,WSW,247,0.0,0.0,94,0.00,,,0.00,Wunderground v.1.15,2013-06-12 08:00:00,
2013-06-12 04:03:00,54.2,52.8,29.86,WSW,248,0.0,0.0,95,0.00,,,0.00,Wunderground v.1.15,2013-06-12 08:03:00,
2013-06-12 04:05:00,54.1,52.7,29.86,WSW,248,0.0,0.0,95,0.00,,,0.00,Wunderground v.1.15,2013-06-12 08:05:00,
2013-06-12 04:06:00,54.1,52.7,29.86,WSW,248,0.0,0.0,95,0.00,,,0.00,Wunderground v.1.15,2013-06-12 08:06:00,
2013-06-12 04:08:00,54.2,52.8,29.86,WSW,248,0.0,0.0,95,0.00,,,0.00,Wunderground v.1.15,2013-06-12 08:08:00,
2013-06-12 04:10:00,54.2,52.8,29.86,WSW,247,0.0,0.0,95,0.00,,,0.00,Wunderground v.1.15,2013-06-12 08:10:00,
2013-06-12 04:12:00,54.2,52.8,29.87,WSW,248,0.0,0.0,95,0.00,,,0.00,Wunderground v.1.15,2013-06-12 08:12:00,
2013-06-12 04:15:00,54.2,52.8,29.87,WSW,247,0.0,0.0,95,0.00,,,0.00,Wunderground v.1.15,2013-06-12 08:15:00,
2013-06-12 04:17:00,54.1,52.7,29.87,WSW,248,0.0,0.0,95,0.00,,,0.00,Wunderground v.1.15,2013-06-12 08:17:00,
2013-06-12 04:18:00,54.0,52.6,29.87,WSW,248,0.0,0.0,95,0.00,,,0.00,Wunderground v.1.15,2013-06-12 08:18:00,
2013-06-12 04:19:00,54.0,52.6,29.87,WSW,248,0.0,0.0,95,0.00,,,0.00,Wunderground v.1.15,2013-06-12 08:19:00,
2013-06-12 04:23:00,53.9,52.5,29.87,WSW,247,0.0,0.0,95,0.00,,,0.00,Wunderground v.1.15,2013-06-12 08:23:00,
2013-06-12 04:24:00,53.9,52.5,29.87,WSW,249,0.0,0.0,95,0.00,,,0.00,Wunderground v.1.15,2013-06-12 08:24:00,
2013-06-12 04:28:00,53.8,52.4,29.88,WSW,247,0.0,0.0,95,0.00,,,0.00,Wunderground v.1.15,2013-06-12 08:28:00,
2013-06-12 04:29:00,53.8,52.7,29.88,WSW,248,0.0,0.0,96,0.00,,,0.00,Wunderground v.1.15,2013-06-12 08:29:00,
2013-06-12 04:31:00,53.7,52.3,29.88,WSW,247,0.0,0.0,95,0.00,,,0.00,Wunderground v.1.15,2013-06-12 08:31:00,
2013-06-12 04:34:00,53.7,52.6,29.88,WSW,248,0.0,0.0,96,0.00,,,0.00,Wunderground v.1.15,2013-06-12 08:34:00,
2013-06-12 04:36:00,53.7,52.6,29.88,WSW,247,0.0,0.0,96,0.00,,,0.00,Wunderground v.1.15,2013-06-12 08:36:00,
2013-06-12 04:40:00,53.5,52.1,29.88,WSW,247,0.0,0.0,95,0.00,,,0.00,Wunderground v.1.15,2013-06-12 08:40:00,
2013-06-12 04:41:00,53.4,52.0,29.88,WSW,248,0.0,0.0,95,0.00,,,0.00,Wunderground v.1.15,2013-06-12 08:41:00,
2013-06-12 04:42:00,53.4,52.0,29.88,WSW,247,0.0,0.0,95,0.00,,,0.00,Wunderground v.1.15,2013-06-12 08:42:00,
2013-06-12 04:43:00,53.3,51.9,29.88,WSW,248,0.0,0.0,95,0.00,,,0.00,Wunderground v.1.15,2013-06-12 08:43:00,
2013-06-12 04:44:00,53.3,51.9,29.88,WSW,247,0.0,0.0,95,0.00,,,0.00,Wunderground v.1.15,2013-06-12 08:44:00,
2013-06-12 04:46:00,53.1,51.7,29.88,WSW,248,0.0,0.0,95,0.00,,,0.00,Wunderground v.1.15,2013-06-12 08:46:00,
2013-06-12 04:47:00,53.0,51.6,29.88,WSW,248,0.0,0.0,95,0.00,,,0.00,Wunderground v.1.15,2013-06-12 08:47:00,
2013-06-12 04:48:00,53.0,51.6,29.88,WSW,248,0.0,0.0,95,0.00,,,0.00,Wunderground v.1.15,2013-06-12 08:48:00,
2013-06-12 04:50:00,52.9,51.5,29.88,WSW,248,0.0,0.0,95,0.00,,,0.00,Wunderground v.1.15,2013-06-12 08:50:00,
2013-06-12 04:52:00,53.0,51.9,29.88,WSW,248,0.0,0.0,96,0.00,,,0.00,Wunderground v.1.15,2013-06-12 08:52:00,
2013-06-12 04:54:00,53.0,51.9,29.88,WSW,248,0.0,0.0,96,0.00,,,0.00,Wunderground v.1.15,2013-06-12 08:54:00,
2013-06-12 04:55:00,53.0,51.9,29.88,WSW,248,0.0,0.0,96,0.00,,,0.00,Wunderground v.1.15,2013-06-12 08:55:00,
2013-06-12 04:59:00,53.0,51.9,29.89,WSW,248,0.0,0.0,96,0.00,,,0.00,Wunderground v.1.15,2013-06-12 08:59:00,
2013-06-12 05:00:00,53.0,51.9,29.89,WSW,247,0.0,0.0,96,0.00,,,0.00,Wunderground v.1.15,2013-06-12 09:00:00,
2013-06-12 05:02:00,53.0,51.9,29.88,WSW,247,0.0,1.0,96,0.00,,,0.00,Wunderground v.1.15,2013-06-12 09:02:00,
2013-06-12 05:04:00,53.0,51.9,29.89,WSW,247,0.0,1.0,96,0.00,,,0.00,Wunderground v.1.15,2013-06-12 09:04:00,
2013-06-12 05:05:00,53.0,51.9,29.89,WSW,248,0.0,1.0,96,0.00,,,0.00,Wunderground v.1.15,2013-06-12 09:05:00,
2013-06-12 05:07:00,52.9,51.8,29.89,WSW,247,0.0,1.0,96,0.00,,,0.00,Wunderground v.1.15,2013-06-12 09:07:00,
2013-06-12 05:09:00,53.0,51.9,29.89,WSW,248,0.0,1.0,96,0.00,,,0.00,Wunderground v.1.15,2013-06-12 09:09:00,
2013-06-12 05:11:00,53.0,51.9,29.89,WSW,248,0.0,1.0,96,0.00,,,0.00,Wunderground v.1.15,2013-06-12 09:11:00,
2013-06-12 05:12:00,53.0,51.9,29.89,WSW,247,0.0,1.0,96,0.00,,,0.00,Wunderground v.1.15,2013-06-12 09:12:00,
2013-06-12 05:15:00,53.0,51.9,29.89,WSW,248,0.0,1.0,96,0.00,,,0.00,Wunderground v.1.15,2013-06-12 09:15:00,
2013-06-12 05:16:00,52.9,51.8,29.89,WSW,248,0.0,1.0,96,0.00,,,0.00,Wunderground v.1.15,2013-06-12 09:16:00,
2013-06-12 05:17:00,52.9,51.8,29.89,WSW,247,0.0,1.0,96,0.00,,,0.00,Wunderground v.1.15,2013-06-12 09:17:00,
2013-06-12 05:18:00,52.9,51.8,29.89,WSW,248,0.0,1.0,96,0.00,,,0.00,Wunderground v.1.15,2013-06-12 09:18:00,
2013-06-12 05:21:00,52.8,51.7,29.89,WSW,248,0.0,1.0,96,0.00,,,0.00,Wunderground v.1.15,2013-06-12 09:21:00,
2013-06-12 05:22:00,52.9,51.8,29.89,WSW,248,0.0,1.0,96,0.00,,,0.00,Wunderground v.1.15,2013-06-12 09:22:00,
2013-06-12 05:23:00,52.9,51.8,29.89,WSW,247,0.0,1.0,96,0.00,,,0.00,Wunderground v.1.15,2013-06-12 09:23:00,
2013-06-12 05:24:00,52.9,51.8,29.89,WSW,248,0.0,1.0,96,0.00,,,0.00,Wunderground v.1.15,2013-06-12 09:24:00,
2013-06-12 05:27:00,52.9,51.8,29.89,WSW,248,0.0,1.0,96,0.00,,,0.00,Wunderground v.1.15,2013-06-12 09:27:00,
2013-06-12 05:29:00,52.8,51.7,29.89,WSW,248,0.0,1.0,96,0.00,,,0.00,Wunderground v.1.15,2013-06-12 09:29:00,
2013-06-12 05:30:00,52.8,51.7,29.89,WSW,248,0.0,1.0,96,0.00,,,0.00,Wunderground v.1.15,2013-06-12 09:30:00,
2013-06-12 05:32:00,52.7,51.6,29.89,WSW,247,0.0,1.0,96,0.00,,,0.00,Wunderground v.1.15,2013-06-12 09:32:00,
2013-06-12 05:34:00,52.6,51.5,29.89,WSW,248,0.0,1.0,96,0.00,,,0.00,Wunderground v.1.15,2013-06-12 09:34:00,
2013-06-12 05:36:00,52.5,51.4,29.89,WSW,247,0.0,1.0,96,0.00,,,0.00,Wunderground v.1.15,2013-06-12 09:36:00,
2013-06-12 05:37:00,52.5,51.4,29.89,WSW,248,0.0,1.0,96,0.00,,,0.00,Wunderground v.1.15,2013-06-12 09:37:00,
2013-06-12 05:38:00,52.4,51.3,29.89,WSW,248,0.0,1.0,96,0.00,,,0.00,Wunderground v.1.15,2013-06-12 09:38:00,
2013-06-12 05:39:00,52.4,51.3,29.89,WSW,248,0.0,1.0,96,0.00,,,0.00,Wunderground v.1.15,2013-06-12 09:39:00,
2013-06-12 05:40:00,52.4,51.3,29.89,WSW,248,0.0,1.0,96,0.00,,,0.00,Wunderground v.1.15,2013-06-12 09:40:00,
2013-06-12 05:44:00,52.4,51.3,29.89,WSW,248,0.0,1.0,96,0.00,,,0.00,Wunderground v.1.15,2013-06-12 09:44:00,
2013-06-12 05:45:00,52.4,51.3,29.89,WSW,248,0.0,1.0,96,0.00,,,0.00,Wunderground v.1.15,2013-06-12 09:45:00,
2013-06-12 05:46:00,52.4,51.3,29.89,WSW,247,0.0,1.0,96,0.00,,,0.00,Wunderground v.1.15,2013-06-12 09:46:00,
2013-06-12 05:50:00,52.4,51.3,29.90,WSW,248,0.0,1.0,96,0.00,,,0.00,Wunderground v.1.15,2013-06-12 09:50:00,
2013-06-12 05:51:00,52.4,51.3,29.90,WSW,248,0.0,1.0,96,0.00,,,0.00,Wunderground v.1.15,2013-06-12 09:51:00,
2013-06-12 05:53:00,52.4,51.3,29.90,WSW,247,0.0,1.0,96,0.00,,,0.00,Wunderground v.1.15,2013-06-12 09:53:00,
2013-06-12 05:55:00,52.4,51.3,29.89,WSW,247,0.0,1.0,96,0.00,,,0.00,Wunderground v.1.15,2013-06-12 09:55:00,
2013-06-12 05:56:00,52.4,51.3,29.90,WSW,248,0.0,1.0,96,0.00,,,0.00,Wunderground v.1.15,2013-06-12 09:56:00,
2013-06-12 05:59:00,52.3,51.2,29.89,WSW,247,0.0,1.0,96,0.00,,,0.00,Wunderground v.1.15,2013-06-12 09:59:00,
2013-06-12 06:01:00,52.2,51.1,29.89,WSW,248,0.0,1.0,96,0.00,,,0.00,Wunderground v.1.15,2013-06-12 10:01:00,
2013-06-12 06:03:00,52.3,51.5,29.90,WSW,248,0.0,1.0,97,0.00,,,0.00,Wunderground v.1.15,2013-06-12 10:03:00,
2013-06-12 06:04:00,52.3,51.5,29.90,WSW,247,0.0,1.0,97,0.00,,,0.00,Wunderground v.1.15,2013-06-12 10:04:00,
2013-06-12 06:05:00,52.3,51.5,29.89,WSW,248,0.0,1.0,97,0.00,,,0.00,Wunderground v.1.15,2013-06-12 10:05:00,
2013-06-12 06:06:00,52.3,51.5,29.90,WSW,247,0.0,1.0,97,0.00,,,0.00,Wunderground v.1.15,2013-06-12 10:06:00,
2013-06-12 06:10:00,52.2,51.4,29.90,WSW,248,0.0,1.0,97,0.00,,,0.00,Wunderground v.1.15,2013-06-12 10:10:00,
2013-06-12 06:11:00,52.2,51.4,29.90,WSW,248,0.0,1.0,97,0.00,,,0.00,Wunderground v.1.15,2013-06-12 10:11:00,
2013-06-12 06:12:00,52.2,51.4,29.90,WSW,247,0.0,1.0,97,0.00,,,0.00,Wunderground v.1.15,2013-06-12 10:12:00,
2013-06-12 06:13:00,52.2,51.4,29.90,WSW,247,0.0,1.0,97,0.00,,,0.00,Wunderground v.1.15,2013-06-12 10:13:00,
2013-06-12 06:16:00,52.1,51.3,29.90,WSW,247,0.0,1.0,97,0.00,,,0.00,Wunderground v.1.15,2013-06-12 10:16:00,
2013-06-12 06:18:00,52.0,51.2,29.90,WSW,247,0.0,1.0,97,0.00,,,0.00,Wunderground v.1.15,2013-06-12 10:18:00,
2013-06-12 06:19:00,52.0,51.2,29.90,WSW,247,0.0,1.0,97,0.00,,,0.00,Wunderground v.1.15,2013-06-12 10:19:00,
2013-06-12 06:20:00,52.0,51.2,29.89,WSW,248,0.0,1.0,97,0.00,,,0.00,Wunderground v.1.15,2013-06-12 10:20:00,
2013-06-12 06:22:00,52.2,51.4,29.90,WSW,247,0.0,1.0,97,0.00,,,0.00,Wunderground v.1.15,2013-06-12 10:22:00,
2013-06-12 06:25:00,52.4,51.6,29.90,WSW,247,0.0,1.0,97,0.00,,,0.00,Wunderground v.1.15,2013-06-12 10:25:00,
2013-06-12 06:27:00,52.7,51.9,29.90,WSW,248,0.0,1.0,97,0.00,,,0.00,Wunderground v.1.15,2013-06-12 10:27:00,
2013-06-12 06:29:00,53.0,52.2,29.90,WSW,248,0.0,1.0,97,0.00,,,0.00,Wunderground v.1.15,2013-06-12 10:29:00,
2013-06-12 06:31:00,53.3,52.5,29.90,WSW,248,0.0,1.0,97,0.00,,,0.00,Wunderground v.1.15,2013-06-12 10:31:00,
2013-06-12 06:32:00,53.4,52.6,29.90,WSW,247,0.0,1.0,97,0.00,,,0.00,Wunderground v.1.15,2013-06-12 10:32:00,
2013-06-12 06:34:00,54.0,53.2,29.90,WSW,248,0.0,1.0,97,0.00,,,0.00,Wunderground v.1.15,2013-06-12 10:34:00,
2013-06-12 06:36:00,54.7,53.9,29.91,WSW,248,0.0,1.0,97,0.00,,,0.00,Wunderground v.1.15,2013-06-12 10:36:00,
2013-06-12 06:37:00,55.0,54.2,29.91,WSW,248,0.0,1.0,97,0.00,,,0.00,Wunderground v.1.15,2013-06-12 10:37:00,
2013-06-12 06:39:00,55.1,54.3,29.91,WSW,249,0.0,1.0,97,0.00,,,0.00,Wunderground v.1.15,2013-06-12 10:39:00,
2013-06-12 06:40:00,55.1,54.0,29.91,WSW,249,0.0,1.0,96,0.00,,,0.00,Wunderground v.1.15,2013-06-12 10:40:00,
2013-06-12 06:42:00,55.2,54.1,29.91,WSW,249,0.0,1.0,96,0.00,,,0.00,Wunderground v.1.15,2013-06-12 10:42:00,
2013-06-12 06:45:00,55.3,54.2,29.91,WSW,249,0.0,1.0,96,0.00,,,0.00,Wunderground v.1.15,2013-06-12 10:45:00,
2013-06-12 06:47:00,55.5,54.4,29.91,WSW,250,0.0,1.0,96,0.00,,,0.00,Wunderground v.1.15,2013-06-12 10:47:00,
2013-06-12 06:48:00,55.6,54.5,29.91,WSW,249,0.0,1.0,96,0.00,,,0.00,Wunderground v.1.15,2013-06-12 10:48:00,
2013-06-12 06:50:00,55.8,54.7,29.91,WSW,249,0.0,1.0,96,0.00,,,0.00,Wunderground v.1.15,2013-06-12 10:50:00,
2013-06-12 06:52:00,56.0,54.9,29.92,WSW,257,0.0,1.0,96,0.00,,,0.00,Wunderground v.1.15,2013-06-12 10:52:00,
2013-06-12 06:53:00,56.1,55.0,29.92,WSW,256,0.0,1.0,96,0.00,,,0.00,Wunderground v.1.15,2013-06-12 10:53:00,
2013-06-12 06:56:00,56.6,55.5,29.92,WSW,256,0.0,1.0,96,0.00,,,0.00,Wunderground v.1.15,2013-06-12 10:56:00,
2013-06-12 06:57:00,56.8,55.7,29.92,WSW,257,0.0,1.0,96,0.00,,,0.00,Wunderground v.1.15,2013-06-12 10:57:00,
2013-06-12 06:59:00,57.3,56.2,29.92,WSW,256,0.0,1.0,96,0.00,,,0.00,Wunderground v.1.15,2013-06-12 10:59:00,
2013-06-12 07:00:00,57.5,56.4,29.92,WSW,256,0.0,1.0,96,0.00,,,0.00,Wunderground v.1.15,2013-06-12 11:00:00,
2013-06-12 07:03:00,57.7,55.7,29.92,West,264,0.0,1.0,93,0.00,,,0.00,Wunderground v.1.15,2013-06-12 11:03:00,
2013-06-12 07:04:00,57.8,55.8,29.92,WSW,250,0.0,1.0,93,0.00,,,0.00,Wunderground v.1.15,2013-06-12 11:04:00,
2013-06-12 07:05:00,57.8,55.8,29.92,WSW,255,0.0,1.0,93,0.00,,,0.00,Wunderground v.1.15,2013-06-12 11:05:00,
2013-06-12 07:08:00,58.1,55.8,29.92,WSW,256,0.0,1.0,92,0.00,,,0.00,Wunderground v.1.15,2013-06-12 11:08:00,
2013-06-12 07:09:00,58.3,56.3,29.92,WSW,256,0.0,1.0,93,0.00,,,0.00,Wunderground v.1.15,2013-06-12 11:09:00,
2013-06-12 07:10:00,58.5,56.5,29.92,WSW,255,0.0,1.0,93,0.00,,,0.00,Wunderground v.1.15,2013-06-12 11:10:00,
2013-06-12 07:14:00,59.1,56.2,29.92,North,349,0.0,1.0,90,0.00,,,0.00,Wunderground v.1.15,2013-06-12 11:14:00,
2013-06-12 07:15:00,59.3,56.4,29.92,NNW,340,0.0,1.0,90,0.00,,,0.00,Wunderground v.1.15,2013-06-12 11:15:00,
2013-06-12 07:16:00,59.4,56.2,29.92,NW,305,0.0,1.0,89,0.00,,,0.00,Wunderground v.1.15,2013-06-12 11:16:00,
2013-06-12 07:18:00,59.5,55.9,29.92,NNW,328,0.0,1.0,88,0.00,,,0.00,Wunderground v.1.15,2013-06-12 11:18:00,
2013-06-12 07:21:00,59.7,56.1,29.92,West,279,0.0,1.0,88,0.00,,,0.00,Wunderground v.1.15,2013-06-12 11:21:00,
2013-06-12 07:22:00,59.7,55.8,29.92,West,277,0.0,1.0,87,0.00,,,0.00,Wunderground v.1.15,2013-06-12 11:22:00,
2013-06-12 07:23:00,59.7,55.8,29.92,West,265,0.0,1.0,87,0.00,,,0.00,Wunderground v.1.15,2013-06-12 11:23:00,
2013-06-12 07:24:00,59.7,55.8,29.92,West,264,0.0,1.0,87,0.00,,,0.00,Wunderground v.1.15,2013-06-12 11:24:00,
2013-06-12 07:26:00,59.8,55.9,29.92,West,265,0.0,1.0,87,0.00,,,0.00,Wunderground v.1.15,2013-06-12 11:26:00,
2013-06-12 07:29:00,60.1,56.2,29.92,North,351,0.0,1.0,87,0.00,,,0.00,Wunderground v.1.15,2013-06-12 11:29:00,
2013-06-12 07:30:00,60.1,55.9,29.92,WNW,293,0.0,1.0,86,0.00,,,0.00,Wunderground v.1.15,2013-06-12 11:30:00,
2013-06-12 07:32:00,60.3,56.1,29.93,WNW,292,0.0,1.0,86,0.00,,,0.00,Wunderground v.1.15,2013-06-12 11:32:00,
2013-06-12 07:34:00,60.4,56.2,29.93,SW,235,0.0,1.0,86,0.00,,,0.00,Wunderground v.1.15,2013-06-12 11:34:00,
2013-06-12 07:35:00,60.5,56.0,29.93,North,357,0.0,2.0,85,0.00,,,0.00,Wunderground v.1.15,2013-06-12 11:35:00,
2013-06-12 07:37:00,60.5,55.6,29.93,West,266,1.0,2.0,84,0.00,,,0.00,Wunderground v.1.15,2013-06-12 11:37:00,
2013-06-12 07:38:00,60.5,55.6,29.93,WSW,256,1.0,2.0,84,0.00,,,0.00,Wunderground v.1.15,2013-06-12 11:38:00,
2013-06-12 07:40:00,60.5,55.6,29.93,West,260,1.0,1.0,84,0.00,,,0.00,Wunderground v.1.15,2013-06-12 11:40:00,
2013-06-12 07:42:00,60.7,55.8,29.93,West,259,1.0,1.0,84,0.00,,,0.00,Wunderground v.1.15,2013-06-12 11:42:00,
2013-06-12 07:43:00,60.8,55.9,29.93,WSW,246,1.0,1.0,84,0.00,,,0.00,Wunderground v.1.15,2013-06-12 11:43:00,
2013-06-12 07:45:00,61.0,56.5,29.94,WSW,250,1.0,1.0,85,0.00,,,0.00,Wunderground v.1.15,2013-06-12 11:45:00,
2013-06-12 07:47:00,61.3,56.8,29.94,NNW,340,0.0,1.0,85,0.00,,,0.00,Wunderground v.1.15,2013-06-12 11:47:00,
2013-06-12 07:50:00,61.6,56.7,29.94,NE,48,0.0,1.0,84,0.00,,,0.00,Wunderground v.1.15,2013-06-12 11:50:00,
2013-06-12 07:53:00,62.0,56.4,29.94,NNW,335,0.0,1.0,82,0.00,,,0.00,Wunderground v.1.15,2013-06-12 11:53:00,
2013-06-12 07:55:00,62.2,56.3,29.94,North,9,0.0,1.0,81,0.00,,,0.00,Wunderground v.1.15,2013-06-12 11:55:00,
2013-06-12 07:57:00,62.3,56.4,29.94,West,262,1.0,1.0,81,0.00,,,0.00,Wunderground v.1.15,2013-06-12 11:57:00,
2013-06-12 07:58:00,62.4,56.5,29.94,NNW,331,0.0,1.0,81,0.00,,,0.00,Wunderground v.1.15,2013-06-12 11:58:00,
2013-06-12 07:59:00,62.4,56.1,29.93,NW,315,0.0,1.0,80,0.00,,,0.00,Wunderground v.1.15,2013-06-12 11:59:00,
2013-06-12 08:00:00,62.6,56.3,29.93,ENE,65,1.0,1.0,80,0.00,,,0.00,Wunderground v.1.15,2013-06-12 12:00:00,
2013-06-12 08:03:00,62.8,56.2,29.93,North,359,1.0,4.0,79,0.00,,,0.00,Wunderground v.1.15,2013-06-12 12:03:00,
2013-06-12 08:07:00,63.0,56.4,29.93,ESE,122,1.0,4.0,79,0.00,,,0.00,Wunderground v.1.15,2013-06-12 12:07:00,
2013-06-12 08:08:00,63.1,56.5,29.93,WSW,255,1.0,4.0,79,0.00,,,0.00,Wunderground v.1.15,2013-06-12 12:08:00,
2013-06-12 08:09:00,63.2,56.2,29.93,WSW,242,1.0,4.0,78,0.00,,,0.00,Wunderground v.1.15,2013-06-12 12:09:00,
2013-06-12 08:12:00,63.5,56.2,29.93,ESE,107,0.0,1.0,77,0.00,,,0.00,Wunderground v.1.15,2013-06-12 12:12:00,
2013-06-12 08:13:00,63.5,55.8,29.94,NNW,330,0.0,2.0,76,0.00,,,0.00,Wunderground v.1.15,2013-06-12 12:13:00,
2013-06-12 08:16:00,63.5,55.8,29.94,North,1,1.0,2.0,76,0.00,,,0.00,Wunderground v.1.15,2013-06-12 12:16:00,
2013-06-12 08:18:00,63.3,55.6,29.94,NNE,21,1.0,2.0,76,0.00,,,0.00,Wunderground v.1.15,2013-06-12 12:18:00,
2013-06-12 08:19:00,63.3,56.3,29.94,East,80,1.0,3.0,78,0.00,,,0.00,Wunderground v.1.15,2013-06-12 12:19:00,
2013-06-12 08:23:00,62.8,55.5,29.94,East,89,2.0,4.0,77,0.00,,,0.00,Wunderground v.1.15,2013-06-12 12:23:00,
2013-06-12 08:24:00,62.8,55.1,29.94,East,96,2.0,4.0,76,0.00,,,0.00,Wunderground v.1.15,2013-06-12 12:24:00,
2013-06-12 08:26:00,62.7,55.7,29.94,NE,46,2.0,4.0,78,0.00,,,0.00,Wunderground v.1.15,2013-06-12 12:26:00,
2013-06-12 08:28:00,62.8,55.5,29.94,ENE,76,2.0,4.0,77,0.00,,,0.00,Wunderground v.1.15,2013-06-12 12:28:00,
2013-06-12 08:29:00,62.8,55.1,29.94,East,89,2.0,4.0,76,0.00,,,0.00,Wunderground v.1.15,2013-06-12 12:29:00,
2013-06-12 08:31:00,62.8,55.1,29.94,NW,304,2.0,2.0,76,0.00,,,0.00,Wunderground v.1.15,2013-06-12 12:31:00,
2013-06-12 08:32:00,62.9,55.6,29.94,East,83,2.0,3.0,77,0.00,,,0.00,Wunderground v.1.15,2013-06-12 12:32:00,
2013-06-12 08:35:00,63.0,55.7,29.94,East,91,2.0,3.0,77,0.00,,,0.00,Wunderground v.1.15,2013-06-12 12:35:00,
2013-06-12 08:36:00,63.0,56.0,29.94,ESE,110,2.0,3.0,78,0.00,,,0.00,Wunderground v.1.15,2013-06-12 12:36:00,
2013-06-12 08:38:00,63.2,55.9,29.94,East,97,2.0,3.0,77,0.00,,,0.00,Wunderground v.1.15,2013-06-12 12:38:00,
2013-06-12 08:39:00,63.4,56.1,29.94,NE,53,2.0,3.0,77,0.00,,,0.00,Wunderground v.1.15,2013-06-12 12:39:00,
2013-06-12 08:41:00,63.3,55.2,29.94,NNW,345,2.0,2.0,75,0.00,,,0.00,Wunderground v.1.15,2013-06-12 12:41:00,
2013-06-12 08:43:00,63.3,55.2,29.94,West,267,2.0,2.0,75,0.00,,,0.00,Wunderground v.1.15,2013-06-12 12:43:00,
2013-06-12 08:44:00,63.3,55.2,29.94,NW,319,2.0,2.0,75,0.00,,,0.00,Wunderground v.1.15,2013-06-12 12:44:00,
2013-06-12 08:45:00,63.3,55.6,29.94,North,351,2.0,2.0,76,0.00,,,0.00,Wunderground v.1.15,2013-06-12 12:45:00,
2013-06-12 08:46:00,63.4,55.7,29.94,NW,316,1.0,2.0,76,0.00,,,0.00,Wunderground v.1.15,2013-06-12 12:46:00,
2013-06-12 08:48:00,63.7,56.0,29.94,NNE,25,1.0,2.0,76,0.00,,,0.00,Wunderground v.1.15,2013-06-12 12:48:00,
2013-06-12 08:50:00,63.8,55.7,29.94,East,84,1.0,2.0,75,0.00,,,0.00,Wunderground v.1.15,2013-06-12 12:50:00,
2013-06-12 08:55:00,63.5,55.4,29.94,ENE,65,2.0,4.0,75,0.00,,,0.00,Wunderground v.1.15,2013-06-12 12:55:00,
2013-06-12 08:56:00,63.5,55.8,29.94,ESE,111,2.0,4.0,76,0.00,,,0.00,Wunderground v.1.15,2013-06-12 12:56:00,
2013-06-12 08:58:00,63.6,55.5,29.94,East,94,2.0,4.0,75,0.00,,,0.00,Wunderground v.1.15,2013-06-12 12:58:00,
2013-06-12 09:00:00,63.7,55.3,29.95,East,91,2.0,3.0,74,0.00,,,0.00,Wunderground v.1.15,2013-06-12 13:00:00,
2013-06-12 09:02:00,63.6,55.2,29.94,NW,325,2.0,3.0,74,0.00,,,0.00,Wunderground v.1.15,2013-06-12 13:02:00,
2013-06-12 09:03:00,63.6,55.2,29.95,North,349,2.0,3.0,74,0.00,,,0.00,Wunderground v.1.15,2013-06-12 13:03:00,
2013-06-12 09:05:00,63.5,55.1,29.94,West,269,2.0,3.0,74,0.00,,,0.00,Wunderground v.1.15,2013-06-12 13:05:00,
2013-06-12 09:06:00,63.6,55.9,29.94,NW,312,1.0,3.0,76,0.00,,,0.00,Wunderground v.1.15,2013-06-12 13:06:00,
2013-06-12 09:08:00,63.5,54.7,29.95,WSW,253,2.0,3.0,73,0.00,,,0.00,Wunderground v.1.15,2013-06-12 13:08:00,
2013-06-12 09:10:00,63.5,55.8,29.95,NE,51,2.0,2.0,76,0.00,,,0.00,Wunderground v.1.15,2013-06-12 13:10:00,
2013-06-12 09:11:00,63.5,55.1,29.95,ENE,72,1.0,2.0,74,0.00,,,0.00,Wunderground v.1.15,2013-06-12 13:11:00,
2013-06-12 09:15:00,63.4,55.3,29.94,East,87,2.0,3.0,75,0.00,,,0.00,Wunderground v.1.15,2013-06-12 13:15:00,
2013-06-12 09:16:00,63.3,54.9,29.95,East,79,2.0,3.0,74,0.00,,,0.00,Wunderground v.1.15,2013-06-12 13:16:00,
2013-06-12 09:18:00,63.3,54.5,29.95,NE,54,2.0,3.0,73,0.00,,,0.00,Wunderground v.1.15,2013-06-12 13:18:00,
2013-06-12 09:21:00,63.7,55.6,29.95,NW,316,2.0,2.0,75,0.00,,,0.00,Wunderground v.1.15,2013-06-12 13:21:00,
2013-06-12 09:22:00,63.8,55.7,29.95,NNW,343,2.0,3.0,75,0.00,,,0.00,Wunderground v.1.15,2013-06-12 13:22:00,
2013-06-12 09:24:00,64.0,55.5,29.95,NNE,15,2.0,3.0,74,0.00,,,0.00,Wunderground v.1.15,2013-06-12 13:24:00,
2013-06-12 09:26:00,64.0,55.2,29.95,ESE,107,2.0,3.0,73,0.00,,,0.00,Wunderground v.1.15,2013-06-12 13:26:00,
2013-06-12 09:28:00,64.1,55.6,29.95,WNW,284,1.0,3.0,74,0.00,,,0.00,Wunderground v.1.15,2013-06-12 13:28:00,
2013-06-12 09:30:00,64.1,56.0,29.95,ESE,118,1.0,1.0,75,0.00,,,0.00,Wunderground v.1.15,2013-06-12 13:30:00,
2013-06-12 09:31:00,64.2,55.7,29.95,ESE,113,1.0,1.0,74,0.00,,,0.00,Wunderground v.1.15,2013-06-12 13:31:00,
2013-06-12 09:32:00,64.3,55.8,29.94,North,6,1.0,1.0,74,0.00,,,0.00,Wunderground v.1.15,2013-06-12 13:32:00,
2013-06-12 09:34:00,64.5,56.0,29.95,NNW,333,1.0,2.0,74,0.00,,,0.00,Wunderground v.1.15,2013-06-12 13:34:00,
2013-06-12 09:35:00,64.5,55.7,29.94,NW,316,1.0,2.0,73,0.00,,,0.00,Wunderground v.1.15,2013-06-12 13:35:00,
2013-06-12 09:39:00,64.9,55.3,29.94,NNE,22,1.0,2.0,71,0.00,,,0.00,Wunderground v.1.15,2013-06-12 13:39:00,
2013-06-12 09:42:00,65.1,55.8,29.94,NW,305,1.0,2.0,72,0.00,,,0.00,Wunderground v.1.15,2013-06-12 13:42:00,
2013-06-12 09:43:00,65.2,55.9,29.94,East,94,1.0,2.0,72,0.00,,,0.00,Wunderground v.1.15,2013-06-12 13:43:00,
2013-06-12 09:44:00,65.2,55.9,29.94,East,88,1.0,2.0,72,0.00,,,0.00,Wunderground v.1.15,2013-06-12 13:44:00,
2013-06-12 09:45:00,65.2,55.6,29.94,SE,145,1.0,2.0,71,0.00,,,0.00,Wunderground v.1.15,2013-06-12 13:45:00,
2013-06-12 09:50:00,65.8,56.9,29.94,East,96,0.0,2.0,73,0.00,,,0.00,Wunderground v.1.15,2013-06-12 13:50:00,
2013-06-12 09:54:00,65.9,56.2,29.94,ESE,120,1.0,2.0,71,0.00,,,0.00,Wunderground v.1.15,2013-06-12 13:54:00,
2013-06-12 09:55:00,65.9,56.2,29.94,SE,135,1.0,2.0,71,0.00,,,0.00,Wunderground v.1.15,2013-06-12 13:55:00,
2013-06-12 09:57:00,65.8,56.1,29.94,ESE,110,1.0,2.0,71,0.00,,,0.00,Wunderground v.1.15,2013-06-12 13:57:00,
2013-06-12 10:00:00,65.8,56.5,29.94,ENE,60,1.0,1.0,72,0.00,,,0.00,Wunderground v.1.15,2013-06-12 14:00:00,
2013-06-12 10:03:00,66.1,56.8,29.94,SE,146,1.0,1.0,72,0.00,,,0.00,Wunderground v.1.15,2013-06-12 14:03:00,
2013-06-12 10:06:00,66.3,56.6,29.94,NW,304,1.0,2.0,71,0.00,,,0.00,Wunderground v.1.15,2013-06-12 14:06:00,
2013-06-12 10:07:00,66.3,56.2,29.94,NW,313,1.0,2.0,70,0.00,,,0.00,Wunderground v.1.15,2013-06-12 14:07:00,
2013-06-12 10:08:00,66.3,56.6,29.94,ENE,68,1.0,2.0,71,0.00,,,0.00,Wunderground v.1.15,2013-06-12 14:08:00,
2013-06-12 10:09:00,66.2,56.1,29.94,NW,322,1.0,2.0,70,0.00,,,0.00,Wunderground v.1.15,2013-06-12 14:09:00,
2013-06-12 10:11:00,66.1,56.0,29.94,West,271,1.0,2.0,70,0.00,,,0.00,Wunderground v.1.15,2013-06-12 14:11:00,
2013-06-12 10:14:00,65.8,56.1,29.95,WSW,251,1.0,2.0,71,0.00,,,0.00,Wunderground v.1.15,2013-06-12 14:14:00,
2013-06-12 10:15:00,65.9,56.2,29.95,NNW,341,1.0,2.0,71,0.00,,,0.00,Wunderground v.1.15,2013-06-12 14:15:00,
2013-06-12 10:16:00,65.9,56.6,29.95,ENE,72,1.0,2.0,72,0.00,,,0.00,Wunderground v.1.15,2013-06-12 14:16:00,
2013-06-12 10:17:00,66.0,55.9,29.95,NW,311,1.0,2.0,70,0.00,,,0.00,Wunderground v.1.15,2013-06-12 14:17:00,
2013-06-12 10:18:00,66.1,56.4,29.95,North,354,1.0,2.0,71,0.00,,,0.00,Wunderground v.1.15,2013-06-12 14:18:00,
2013-06-12 10:22:00,66.2,55.7,29.94,East,86,1.0,2.0,69,0.00,,,0.00,Wunderground v.1.15,2013-06-12 14:22:00,
2013-06-12 10:24:00,66.2,56.1,29.94,SSW,210,1.0,2.0,70,0.00,,,0.00,Wunderground v.1.15,2013-06-12 14:24:00,
2013-06-12 10:26:00,66.3,56.6,29.94,ESE,102,1.0,3.0,71,0.00,,,0.00,Wunderground v.1.15,2013-06-12 14:26:00,
2013-06-12 10:29:00,65.8,56.1,29.94,SSW,212,2.0,3.0,71,0.00,,,0.00,Wunderground v.1.15,2013-06-12 14:29:00,
2013-06-12 10:31:00,65.9,56.6,29.94,East,93,2.0,4.0,72,0.00,,,0.00,Wunderground v.1.15,2013-06-12 14:31:00,
2013-06-12 10:34:00,65.6,55.2,29.94,East,94,2.0,4.0,69,0.00,,,0.00,Wunderground v.1.15,2013-06-12 14:34:00,
2013-06-12 10:35:00,65.6,55.2,29.94,NNW,333,2.0,4.0,69,0.00,,,0.00,Wunderground v.1.15,2013-06-12 14:35:00,
2013-06-12 10:40:00,65.5,55.8,29.95,NNW,330,2.0,2.0,71,0.00,,,0.00,Wunderground v.1.15,2013-06-12 14:40:00,
2013-06-12 10:41:00,65.8,56.9,29.95,NW,315,1.0,2.0,73,0.00,,,0.00,Wunderground v.1.15,2013-06-12 14:41:00,
2013-06-12 10:42:00,66.0,56.3,29.95,West,273,1.0,2.0,71,0.00,,,0.00,Wunderground v.1.15,2013-06-12 14:42:00,
2013-06-12 10:45:00,66.5,56.4,29.95,South,184,1.0,2.0,70,0.00,,,0.00,Wunderground v.1.15,2013-06-12 14:45:00,
2013-06-12 10:47:00,66.8,56.3,29.95,SE,136,1.0,2.0,69,0.00,,,0.00,Wunderground v.1.15,2013-06-12 14:47:00,
2013-06-12 10:48:00,67.0,56.5,29.95,WNW,288,1.0,2.0,69,0.00,,,0.00,Wunderground v.1.15,2013-06-12 14:48:00,
2013-06-12 10:49:00,67.3,56.8,29.94,WSW,248,1.0,2.0,69,0.00,,,0.00,Wunderground v.1.15,2013-06-12 14:49:00,
2013-06-12 10:50:00,67.6,56.7,29.94,SW,221,1.0,1.0,68,0.00,,,0.00,Wunderground v.1.15,2013-06-12 14:50:00,
2013-06-12 10:52:00,67.5,55.7,29.94,NNE,27,1.0,3.0,66,0.00,,,0.00,Wunderground v.1.15,2013-06-12 14:52:00,
2013-06-12 10:54:00,67.5,55.7,29.94,NW,312,1.0,3.0,66,0.00,,,0.00,Wunderground v.1.15,2013-06-12 14:54:00,
2013-06-12 10:56:00,67.4,55.6,29.94,NW,323,1.0,3.0,66,0.00,,,0.00,Wunderground v.1.15,2013-06-12 14:56:00,
2013-06-12 10:57:00,67.5,55.7,29.94,NW,314,1.0,3.0,66,0.00,,,0.00,Wunderground v.1.15,2013-06-12 14:57:00,
2013-06-12 11:00:00,67.6,55.4,29.93,North,8,2.0,3.0,65,0.00,,,0.00,Wunderground v.1.15,2013-06-12 15:00:00,
2013-06-12 11:01:00,67.5,54.5,29.93,ENE,72,2.0,3.0,63,0.00,,,0.00,Wunderground v.1.15,2013-06-12 15:01:00,
2013-06-12 11:02:00,67.6,55.4,29.93,East,98,1.0,3.0,65,0.00,,,0.00,Wunderground v.1.15,2013-06-12 15:02:00,
2013-06-12 11:03:00,67.6,55.0,29.94,East,99,1.0,3.0,64,0.00,,,0.00,Wunderground v.1.15,2013-06-12 15:03:00,
2013-06-12 11:04:00,67.8,56.4,29.94,East,86,1.0,3.0,67,0.00,,,0.00,Wunderground v.1.15,2013-06-12 15:04:00,
2013-06-12 11:06:00,67.8,56.0,29.94,East,96,1.0,5.0,66,0.00,,,0.00,Wunderground v.1.15,2013-06-12 15:06:00,
2013-06-12 11:09:00,67.3,56.0,29.94,West,267,2.0,5.0,67,0.00,,,0.00,Wunderground v.1.15,2013-06-12 15:09:00,
2013-06-12 11:11:00,67.6,55.8,29.94,ENE,58,1.0,1.0,66,0.00,,,0.00,Wunderground v.1.15,2013-06-12 15:11:00,
2013-06-12 11:12:00,67.7,55.1,29.94,East,90,2.0,4.0,64,0.00,,,0.00,Wunderground v.1.15,2013-06-12 15:12:00,
2013-06-12 11:14:00,67.6,55.8,29.94,NE,35,2.0,4.0,66,0.00,,,0.00,Wunderground v.1.15,2013-06-12 15:14:00,
2013-06-12 11:15:00,67.4,53.9,29.94,North,357,2.0,4.0,62,0.00,,,0.00,Wunderground v.1.15,2013-06-12 15:15:00,
2013-06-12 11:19:00,66.8,54.7,29.94,East,82,2.0,4.0,65,0.00,,,0.00,Wunderground v.1.15,2013-06-12 15:19:00,
2013-06-12 11:20:00,66.8,55.5,29.94,East,82,2.0,2.0,67,0.00,,,0.00,Wunderground v.1.15,2013-06-12 15:20:00,
2013-06-12 11:21:00,66.8,55.5,29.94,NNW,335,2.0,3.0,67,0.00,,,0.00,Wunderground v.1.15,2013-06-12 15:21:00,
2013-06-12 11:23:00,67.1,55.4,29.94,ESE,108,2.0,3.0,66,0.00,,,0.00,Wunderground v.1.15,2013-06-12 15:23:00,
2013-06-12 11:28:00,67.0,56.5,29.95,East,86,2.0,3.0,69,0.00,,,0.00,Wunderground v.1.15,2013-06-12 15:28:00,
2013-06-12 11:29:00,67.2,55.5,29.95,ESE,120,2.0,3.0,66,0.00,,,0.00,Wunderground v.1.15,2013-06-12 15:29:00,
2013-06-12 11:33:00,67.1,55.8,29.95,West,277,2.0,3.0,67,0.00,,,0.00,Wunderground v.1.15,2013-06-12 15:33:00,
2013-06-12 11:35:00,67.6,56.2,29.95,NW,307,1.0,3.0,67,0.00,,,0.00,Wunderground v.1.15,2013-06-12 15:35:00,
2013-06-12 11:37:00,68.1,55.5,29.95,NW,326,2.0,3.0,64,0.00,,,0.00,Wunderground v.1.15,2013-06-12 15:37:00,
2013-06-12 11:40:00,68.3,55.2,29.95,WNW,294,1.0,2.0,63,0.00,,,0.00,Wunderground v.1.15,2013-06-12 15:40:00,
2013-06-12 11:41:00,68.3,54.3,29.95,NNW,339,1.0,2.0,61,0.00,,,0.00,Wunderground v.1.15,2013-06-12 15:41:00,
2013-06-12 11:43:00,68.3,54.3,29.95,West,274,1.0,2.0,61,0.00,,,0.00,Wunderground v.1.15,2013-06-12 15:43:00,
2013-06-12 11:44:00,68.3,55.2,29.95,West,280,1.0,2.0,63,0.00,,,0.00,Wunderground v.1.15,2013-06-12 15:44:00,
2013-06-12 11:45:00,68.5,55.4,29.95,NW,319,1.0,2.0,63,0.00,,,0.00,Wunderground v.1.15,2013-06-12 15:45:00,
2013-06-12 11:49:00,68.5,55.0,29.95,WNW,294,1.0,4.0,62,0.00,,,0.00,Wunderground v.1.15,2013-06-12 15:49:00,
2013-06-12 11:50:00,68.4,55.7,29.95,WNW,294,1.0,1.0,64,0.00,,,0.00,Wunderground v.1.15,2013-06-12 15:50:00,
2013-06-12 11:51:00,68.5,56.3,29.95,West,274,1.0,1.0,65,0.00,,,0.00,Wunderground v.1.15,2013-06-12 15:51:00,
2013-06-12 11:53:00,68.9,57.1,29.95,NNE,22,1.0,5.0,66,0.00,,,0.00,Wunderground v.1.15,2013-06-12 15:53:00,
2013-06-12 11:54:00,69.0,56.3,29.95,North,349,1.0,5.0,64,0.00,,,0.00,Wunderground v.1.15,2013-06-12 15:54:00,
2013-06-12 11:55:00,69.1,55.5,29.95,WNW,293,1.0,5.0,62,0.00,,,0.00,Wunderground v.1.15,2013-06-12 15:55:00,
2013-06-12 11:56:00,69.2,55.6,29.95,West,262,1.0,5.0,62,0.00,,,0.00,Wunderground v.1.15,2013-06-12 15:56:00,
2013-06-12 12:00:00,69.2,55.6,29.95,NW,307,1.0,1.0,62,0.00,,,0.00,Wunderground v.1.15,2013-06-12 16:00:00,
2013-06-12 12:01:00,69.4,55.8,29.95,NNE,26,1.0,1.0,62,0.00,,,0.00,Wunderground v.1.15,2013-06-12 16:01:00,
2013-06-12 12:02:00,69.4,55.4,29.95,NW,305,1.0,1.0,61,0.00,,,0.00,Wunderground v.1.15,2013-06-12 16:02:00,
2013-06-12 12:03:00,69.5,55.0,29.95,WSW,255,1.0,5.0,60,0.00,,,0.00,Wunderground v.1.15,2013-06-12 16:03:00,
2013-06-12 12:05:00,69.1,54.2,29.95,West,267,1.0,5.0,59,0.00,,,0.00,Wunderground v.1.15,2013-06-12 16:05:00,
2013-06-12 12:07:00,69.1,55.5,29.95,NNE,22,1.0,5.0,62,0.00,,,0.00,Wunderground v.1.15,2013-06-12 16:07:00,
2013-06-12 12:08:00,69.2,55.2,29.95,NNW,334,1.0,5.0,61,0.00,,,0.00,Wunderground v.1.15,2013-06-12 16:08:00,
2013-06-12 12:09:00,69.3,55.7,29.95,NE,47,1.0,5.0,62,0.00,,,0.00,Wunderground v.1.15,2013-06-12 16:09:00,
2013-06-12 12:13:00,69.9,55.8,29.95,SE,133,2.0,2.0,61,0.00,,,0.00,Wunderground v.1.15,2013-06-12 16:13:00,
2013-06-12 12:14:00,70.1,55.6,29.95,WSW,238,1.0,2.0,60,0.00,,,0.00,Wunderground v.1.15,2013-06-12 16:14:00,
2013-06-12 12:16:00,70.0,54.1,29.95,SW,232,1.0,2.0,57,0.00,,,0.00,Wunderground v.1.15,2013-06-12 16:16:00,
2013-06-12 12:19:00,70.0,55.5,29.95,SSW,200,1.0,2.0,60,0.00,,,0.00,Wunderground v.1.15,2013-06-12 16:19:00,
2013-06-12 12:20:00,70.2,56.1,29.95,West,267,1.0,1.0,61,0.00,,,0.00,Wunderground v.1.15,2013-06-12 16:20:00,
2013-06-12 12:21:00,70.5,56.9,29.95,West,266,0.0,1.0,62,0.00,,,0.00,Wunderground v.1.15,2013-06-12 16:21:00,
2013-06-12 12:23:00,71.4,57.7,29.95,West,269,0.0,1.0,62,0.00,,,0.00,Wunderground v.1.15,2013-06-12 16:23:00,
2013-06-12 12:24:00,71.7,55.2,29.95,WSW,257,1.0,1.0,56,0.00,,,0.00,Wunderground v.1.15,2013-06-12 16:24:00,
2013-06-12 12:26:00,71.8,55.3,29.95,WSW,257,0.0,1.0,56,0.00,,,0.00,Wunderground v.1.15,2013-06-12 16:26:00,
2013-06-12 12:27:00,71.9,56.3,29.95,WSW,257,0.0,1.0,58,0.00,,,0.00,Wunderground v.1.15,2013-06-12 16:27:00,
2013-06-12 12:31:00,72.0,52.3,29.95,NW,325,1.0,3.0,50,0.00,,,0.00,Wunderground v.1.15,2013-06-12 16:31:00,
2013-06-12 12:32:00,71.8,52.7,29.95,West,263,1.0,3.0,51,0.00,,,0.00,Wunderground v.1.15,2013-06-12 16:32:00,
2013-06-12 12:33:00,71.7,53.1,29.95,SE,135,1.0,3.0,52,0.00,,,0.00,Wunderground v.1.15,2013-06-12 16:33:00,
2013-06-12 12:36:00,71.9,54.3,29.95,South,173,1.0,3.0,54,0.00,,,0.00,Wunderground v.1.15,2013-06-12 16:36:00,
2013-06-12 12:38:00,72.2,54.1,29.95,SSW,201,1.0,3.0,53,0.00,,,0.00,Wunderground v.1.15,2013-06-12 16:38:00,
2013-06-12 12:39:00,72.4,54.3,29.95,NNW,340,1.0,3.0,53,0.00,,,0.00,Wunderground v.1.15,2013-06-12 16:39:00,
2013-06-12 12:42:00,72.6,54.0,29.95,East,96,1.0,2.0,52,0.00,,,0.00,Wunderground v.1.15,2013-06-12 16:42:00,
2013-06-12 12:43:00,72.6,54.0,29.95,ENE,60,1.0,2.0,52,0.00,,,0.00,Wunderground v.1.15,2013-06-12 16:43:00,
2013-06-12 12:45:00,72.4,54.8,29.95,North,355,1.0,2.0,54,0.00,,,0.00,Wunderground v.1.15,2013-06-12 16:45:00,
2013-06-12 12:46:00,72.3,53.2,29.95,NNE,19,1.0,2.0,51,0.00,,,0.00,Wunderground v.1.15,2013-06-12 16:46:00,
2013-06-12 12:49:00,72.1,54.0,29.95,WSW,256,1.0,2.0,53,0.00,,,0.00,Wunderground v.1.15,2013-06-12 16:49:00,
2013-06-12 12:51:00,72.1,55.0,29.94,NW,304,1.0,1.0,55,0.00,,,0.00,Wunderground v.1.15,2013-06-12 16:51:00,
2013-06-12 12:52:00,72.3,54.2,29.94,NNW,340,1.0,6.0,53,0.00,,,0.00,Wunderground v.1.15,2013-06-12 16:52:00,
2013-06-12 12:55:00,72.2,53.6,29.94,SE,146,1.0,6.0,52,0.00,,,0.00,Wunderground v.1.15,2013-06-12 16:55:00,
2013-06-12 12:56:00,72.4,55.8,29.94,SSE,152,1.0,6.0,56,0.00,,,0.00,Wunderground v.1.15,2013-06-12 16:56:00,
2013-06-12 12:58:00,72.6,55.0,29.94,WSW,240,1.0,6.0,54,0.00,,,0.00,Wunderground v.1.15,2013-06-12 16:58:00,
2013-06-12 13:00:00,72.5,52.8,29.94,NE,53,2.0,2.0,50,0.00,,,0.00,Wunderground v.1.15,2013-06-12 17:00:00,
2013-06-12 13:01:00,72.3,53.2,29.94,East,84,2.0,2.0,51,0.00,,,0.00,Wunderground v.1.15,2013-06-12 17:01:00,
2013-06-12 13:03:00,71.9,54.3,29.94,ENE,65,2.0,2.0,54,0.00,,,0.00,Wunderground v.1.15,2013-06-12 17:03:00,
2013-06-12 13:05:00,71.7,51.5,29.94,ENE,63,2.0,3.0,49,0.00,,,0.00,Wunderground v.1.15,2013-06-12 17:05:00,
2013-06-12 13:06:00,71.6,50.9,29.93,East,89,2.0,3.0,48,0.00,,,0.00,Wunderground v.1.15,2013-06-12 17:06:00,
2013-06-12 13:11:00,70.8,51.2,29.93,East,86,2.0,2.0,50,0.00,,,0.00,Wunderground v.1.15,2013-06-12 17:11:00,
2013-06-12 13:12:00,70.7,51.7,29.93,East,90,2.0,2.0,51,0.00,,,0.00,Wunderground v.1.15,2013-06-12 17:12:00,
2013-06-12 13:13:00,70.6,52.6,29.92,NNW,345,2.0,2.0,53,0.00,,,0.00,Wunderground v.1.15,2013-06-12 17:13:00,
2013-06-12 13:14:00,70.8,52.8,29.92,NNE,17,2.0,2.0,53,0.00,,,0.00,Wunderground v.1.15,2013-06-12 17:14:00,
2013-06-12 13:18:00,71.6,53.6,29.92,East,91,2.0,8.0,53,0.00,,,0.00,Wunderground v.1.15,2013-06-12 17:18:00,
2013-06-12 13:19:00,71.6,53.0,29.92,ENE,75,2.0,8.0,52,0.00,,,0.00,Wunderground v.1.15,2013-06-12 17:19:00,
2013-06-12 13:20:00,71.5,52.9,29.92,ENE,77,2.0,2.0,52,0.00,,,0.00,Wunderground v.1.15,2013-06-12 17:20:00,
2013-06-12 13:22:00,71.1,52.6,29.92,ESE,110,2.0,4.0,52,0.00,,,0.00,Wunderground v.1.15,2013-06-12 17:22:00,
2013-06-12 13:23:00,71.0,53.5,29.92,East,79,3.0,4.0,54,0.00,,,0.00,Wunderground v.1.15,2013-06-12 17:23:00,
2013-06-12 13:24:00,71.0,53.5,29.92,ESE,107,3.0,4.0,54,0.00,,,0.00,Wunderground v.1.15,2013-06-12 17:24:00,
2013-06-12 13:26:00,71.0,53.5,29.92,NNE,20,3.0,4.0,54,0.00,,,0.00,Wunderground v.1.15,2013-06-12 17:26:00,
2013-06-12 13:28:00,71.3,53.8,29.92,ENE,78,3.0,4.0,54,0.00,,,0.00,Wunderground v.1.15,2013-06-12 17:28:00,
2013-06-12 13:29:00,71.4,53.4,29.92,ESE,122,3.0,5.0,53,0.00,,,0.00,Wunderground v.1.15,2013-06-12 17:29:00,
2013-06-12 13:30:00,71.3,52.8,29.92,SE,140,3.0,3.0,52,0.00,,,0.00,Wunderground v.1.15,2013-06-12 17:30:00,
2013-06-12 13:35:00,70.6,50.5,29.91,East,91,3.0,6.0,49,0.00,,,0.00,Wunderground v.1.15,2013-06-12 17:35:00,
2013-06-12 13:36:00,70.4,51.4,29.91,East,79,4.0,6.0,51,0.00,,,0.00,Wunderground v.1.15,2013-06-12 17:36:00,
2013-06-12 13:37:00,70.2,51.2,29.91,ESE,103,4.0,6.0,51,0.00,,,0.00,Wunderground v.1.15,2013-06-12 17:37:00,
2013-06-12 13:38:00,70.1,51.1,29.91,East,80,4.0,7.0,51,0.00,,,0.00,Wunderground v.1.15,2013-06-12 17:38:00,
2013-06-12 13:41:00,70.0,52.1,29.91,East,79,4.0,4.0,53,0.00,,,0.00,Wunderground v.1.15,2013-06-12 17:41:00,
2013-06-12 13:43:00,70.3,50.2,29.91,ENE,61,4.0,4.0,49,0.00,,,0.00,Wunderground v.1.15,2013-06-12 17:43:00,
2013-06-12 13:44:00,70.3,50.8,29.91,ESE,105,4.0,4.0,50,0.00,,,0.00,Wunderground v.1.15,2013-06-12 17:44:00,
2013-06-12 13:45:00,70.4,51.4,29.90,ENE,77,3.0,4.0,51,0.00,,,0.00,Wunderground v.1.15,2013-06-12 17:45:00,
2013-06-12 13:48:00,70.5,49.9,29.90,East,90,3.0,5.0,48,0.00,,,0.00,Wunderground v.1.15,2013-06-12 17:48:00,
2013-06-12 13:51:00,70.6,52.6,29.90,East,94,3.0,3.0,53,0.00,,,0.00,Wunderground v.1.15,2013-06-12 17:51:00,
2013-06-12 13:52:00,70.9,53.4,29.90,NE,45,3.0,4.0,54,0.00,,,0.00,Wunderground v.1.15,2013-06-12 17:52:00,
2013-06-12 13:54:00,71.2,51.6,29.90,West,266,3.0,4.0,50,0.00,,,0.00,Wunderground v.1.15,2013-06-12 17:54:00,
2013-06-12 13:57:00,71.2,49.9,29.90,ENE,75,2.0,4.0,47,0.00,,,0.00,Wunderground v.1.15,2013-06-12 17:57:00,
2013-06-12 14:00:00,71.3,50.6,29.90,NNW,331,2.0,4.0,48,0.00,,,0.00,Wunderground v.1.15,2013-06-12 18:00:00,
2013-06-12 14:01:00,71.5,51.3,29.90,North,356,2.0,4.0,49,0.00,,,0.00,Wunderground v.1.15,2013-06-12 18:01:00,
2013-06-12 14:02:00,71.7,52.1,29.90,SE,131,2.0,4.0,50,0.00,,,0.00,Wunderground v.1.15,2013-06-12 18:02:00,
2013-06-12 14:05:00,72.2,53.1,29.90,East,100,2.0,4.0,51,0.00,,,0.00,Wunderground v.1.15,2013-06-12 18:05:00,
2013-06-12 14:07:00,72.2,50.8,29.90,East,80,2.0,4.0,47,0.00,,,0.00,Wunderground v.1.15,2013-06-12 18:07:00,
2013-06-12 14:10:00,72.3,50.9,29.90,NNE,32,2.0,2.0,47,0.00,,,0.00,Wunderground v.1.15,2013-06-12 18:10:00,
2013-06-12 14:12:00,72.5,50.5,29.90,North,359,2.0,3.0,46,0.00,,,0.00,Wunderground v.1.15,2013-06-12 18:12:00,
2013-06-12 14:13:00,72.5,51.1,29.90,ENE,58,2.0,3.0,47,0.00,,,0.00,Wunderground v.1.15,2013-06-12 18:13:00,
2013-06-12 14:15:00,72.5,50.5,29.90,NE,51,2.0,8.0,46,0.00,,,0.00,Wunderground v.1.15,2013-06-12 18:15:00,
2013-06-12 14:17:00,72.4,51.0,29.89,West,279,2.0,8.0,47,0.00,,,0.00,Wunderground v.1.15,2013-06-12 18:17:00,
2013-06-12 14:18:00,72.5,50.5,29.89,NE,35,2.0,8.0,46,0.00,,,0.00,Wunderground v.1.15,2013-06-12 18:18:00,
2013-06-12 14:20:00,72.4,48.0,29.89,ENE,68,2.0,2.0,42,0.00,,,0.00,Wunderground v.1.15,2013-06-12 18:20:00,
2013-06-12 14:22:00,72.4,50.4,29.89,ENE,63,2.0,3.0,46,0.00,,,0.00,Wunderground v.1.15,2013-06-12 18:22:00,
2013-06-12 14:24:00,72.6,51.8,29.89,East,86,3.0,4.0,48,0.00,,,0.00,Wunderground v.1.15,2013-06-12 18:24:00,
2013-06-12 14:26:00,72.9,51.5,29.89,SSE,149,2.0,4.0,47,0.00,,,0.00,Wunderground v.1.15,2013-06-12 18:26:00,
2013-06-12 14:27:00,73.0,51.6,29.89,ESE,117,2.0,4.0,47,0.00,,,0.00,Wunderground v.1.15,2013-06-12 18:27:00,
2013-06-12 14:28:00,73.1,51.7,29.89,ESE,102,2.0,4.0,47,0.00,,,0.00,Wunderground v.1.15,2013-06-12 18:28:00,
2013-06-12 14:30:00,72.6,50.0,29.89,NE,40,2.0,5.0,45,0.00,,,0.00,Wunderground v.1.15,2013-06-12 18:30:00,
2013-06-12 14:32:00,72.1,49.6,29.89,ESE,115,2.0,5.0,45,0.00,,,0.00,Wunderground v.1.15,2013-06-12 18:32:00,
2013-06-12 14:34:00,71.7,50.4,29.89,NE,41,2.0,5.0,47,0.00,,,0.00,Wunderground v.1.15,2013-06-12 18:34:00,
2013-06-12 14:35:00,71.7,51.5,29.89,NNW,340,3.0,5.0,49,0.00,,,0.00,Wunderground v.1.15,2013-06-12 18:35:00,
2013-06-12 14:36:00,71.8,52.2,29.89,ESE,105,3.0,5.0,50,0.00,,,0.00,Wunderground v.1.15,2013-06-12 18:36:00,
2013-06-12 14:39:00,72.2,51.4,29.89,SE,132,2.0,5.0,48,0.00,,,0.00,Wunderground v.1.15,2013-06-12 18:39:00,
2013-06-12 14:41:00,72.3,52.1,29.89,NE,46,2.0,2.0,49,0.00,,,0.00,Wunderground v.1.15,2013-06-12 18:41:00,
2013-06-12 14:42:00,72.2,52.5,29.88,ESE,121,2.0,3.0,50,0.00,,,0.00,Wunderground v.1.15,2013-06-12 18:42:00,
2013-06-12 14:43:00,72.1,53.0,29.89,ESE,111,2.0,3.0,51,0.00,,,0.00,Wunderground v.1.15,2013-06-12 18:43:00,
2013-06-12 14:46:00,72.2,50.8,29.89,East,89,2.0,3.0,47,0.00,,,0.00,Wunderground v.1.15,2013-06-12 18:46:00,
2013-06-12 14:48:00,72.1,52.4,29.89,NW,311,2.0,4.0,50,0.00,,,0.00,Wunderground v.1.15,2013-06-12 18:48:00,
2013-06-12 14:52:00,71.9,50.6,29.89,East,97,2.0,6.0,47,0.00,,,0.00,Wunderground v.1.15,2013-06-12 18:52:00,
2013-06-12 14:53:00,72.0,51.8,29.90,ESE,113,2.0,6.0,49,0.00,,,0.00,Wunderground v.1.15,2013-06-12 18:53:00,
2013-06-12 14:55:00,72.0,53.4,29.90,NE,43,3.0,7.0,52,0.00,,,0.00,Wunderground v.1.15,2013-06-12 18:55:00,
2013-06-12 14:56:00,71.8,52.2,29.90,ESE,114,3.0,7.0,50,0.00,,,0.00,Wunderground v.1.15,2013-06-12 18:56:00,
2013-06-12 14:58:00,71.9,51.1,29.89,SE,145,3.0,7.0,48,0.00,,,0.00,Wunderground v.1.15,2013-06-12 18:58:00,
2013-06-12 15:00:00,72.0,52.3,29.90,ENE,65,3.0,6.0,50,0.00,,,0.00,Wunderground v.1.15,2013-06-12 19:00:00,
2013-06-12 15:01:00,71.9,50.6,29.90,ENE,63,3.0,6.0,47,0.00,,,0.00,Wunderground v.1.15,2013-06-12 19:01:00,
2013-06-12 15:04:00,71.7,53.1,29.90,NE,37,3.0,6.0,52,0.00,,,0.00,Wunderground v.1.15,2013-06-12 19:04:00,
2013-06-12 15:05:00,71.7,53.1,29.90,ENE,73,2.0,6.0,52,0.00,,,0.00,Wunderground v.1.15,2013-06-12 19:05:00,
2013-06-12 15:08:00,71.8,54.3,29.90,East,80,2.0,6.0,54,0.00,,,0.00,Wunderground v.1.15,2013-06-12 19:08:00,
2013-06-12 15:09:00,71.8,54.3,29.90,ESE,105,2.0,6.0,54,0.00,,,0.00,Wunderground v.1.15,2013-06-12 19:09:00,
2013-06-12 15:11:00,71.8,54.8,29.90,WSW,246,3.0,3.0,55,0.00,,,0.00,Wunderground v.1.15,2013-06-12 19:11:00,
2013-06-12 15:12:00,71.9,54.9,29.90,North,350,2.0,3.0,55,0.00,,,0.00,Wunderground v.1.15,2013-06-12 19:12:00,
2013-06-12 15:15:00,71.8,54.8,29.91,East,90,3.0,3.0,55,0.00,,,0.00,Wunderground v.1.15,2013-06-12 19:15:00,
2013-06-12 15:16:00,71.7,55.2,29.91,ESE,112,3.0,3.0,56,0.00,,,0.00,Wunderground v.1.15,2013-06-12 19:16:00,
2013-06-12 15:19:00,71.3,54.3,29.90,ENE,72,3.0,6.0,55,0.00,,,0.00,Wunderground v.1.15,2013-06-12 19:19:00,
2013-06-12 15:20:00,71.2,54.7,29.90,ENE,68,3.0,5.0,56,0.00,,,0.00,Wunderground v.1.15,2013-06-12 19:20:00,
2013-06-12 15:23:00,70.9,53.9,29.90,NE,44,3.0,5.0,55,0.00,,,0.00,Wunderground v.1.15,2013-06-12 19:23:00,
2013-06-12 15:24:00,70.8,53.8,29.90,ENE,66,3.0,5.0,55,0.00,,,0.00,Wunderground v.1.15,2013-06-12 19:24:00,
2013-06-12 15:25:00,70.9,54.4,29.90,ENE,63,3.0,5.0,56,0.00,,,0.00,Wunderground v.1.15,2013-06-12 19:25:00,
2013-06-12 15:27:00,70.8,55.8,29.90,ESE,107,3.0,5.0,59,0.00,,,0.00,Wunderground v.1.15,2013-06-12 19:27:00,
2013-06-12 15:28:00,70.9,56.3,29.90,East,100,3.0,5.0,60,0.00,,,0.00,Wunderground v.1.15,2013-06-12 19:28:00,
2013-06-12 15:32:00,71.8,55.7,29.90,NNE,18,2.0,2.0,57,0.00,,,0.00,Wunderground v.1.15,2013-06-12 19:32:00,
2013-06-12 15:33:00,72.0,56.4,29.90,North,351,2.0,2.0,58,0.00,,,0.00,Wunderground v.1.15,2013-06-12 19:33:00,
2013-06-12 15:34:00,72.3,55.2,29.90,NNW,330,2.0,2.0,55,0.00,,,0.00,Wunderground v.1.15,2013-06-12 19:34:00,
2013-06-12 15:36:00,72.4,55.8,29.90,ENE,77,2.0,5.0,56,0.00,,,0.00,Wunderground v.1.15,2013-06-12 19:36:00,
2013-06-12 15:38:00,72.4,55.8,29.90,NE,44,2.0,6.0,56,0.00,,,0.00,Wunderground v.1.15,2013-06-12 19:38:00,
2013-06-12 15:40:00,72.1,54.5,29.90,ENE,63,2.0,2.0,54,0.00,,,0.00,Wunderground v.1.15,2013-06-12 19:40:00,
2013-06-12 15:42:00,71.9,54.9,29.90,East,100,2.0,2.0,55,0.00,,,0.00,Wunderground v.1.15,2013-06-12 19:42:00,
2013-06-12 15:45:00,71.4,53.9,29.90,East,89,3.0,7.0,54,0.00,,,0.00,Wunderground v.1.15,2013-06-12 19:45:00,
2013-06-12 15:46:00,71.2,53.7,29.90,NE,41,3.0,8.0,54,0.00,,,0.00,Wunderground v.1.15,2013-06-12 19:46:00,
2013-06-12 15:50:00,70.7,54.2,29.89,ENE,65,3.0,3.0,56,0.00,,,0.00,Wunderground v.1.15,2013-06-12 19:50:00,
2013-06-12 15:51:00,70.6,52.6,29.89,East,80,4.0,5.0,53,0.00,,,0.00,Wunderground v.1.15,2013-06-12 19:51:00,
2013-06-12 15:53:00,70.3,53.4,29.89,NE,37,4.0,6.0,55,0.00,,,0.00,Wunderground v.1.15,2013-06-12 19:53:00,
2013-06-12 15:57:00,70.0,53.6,29.89,ENE,74,3.0,6.0,56,0.00,,,0.00,Wunderground v.1.15,2013-06-12 19:57:00,
2013-06-12 15:58:00,70.0,53.1,29.89,West,276,3.0,6.0,55,0.00,,,0.00,Wunderground v.1.15,2013-06-12 19:58:00,
2013-06-12 15:59:00,70.1,53.2,29.89,ENE,65,3.0,6.0,55,0.00,,,0.00,Wunderground v.1.15,2013-06-12 19:59:00,
2013-06-12 16:01:00,70.2,53.3,29.88,ESE,107,3.0,3.0,55,0.00,,,0.00,Wunderground v.1.15,2013-06-12 20:01:00,
2013-06-12 16:02:00,70.2,53.3,29.88,ENE,76,3.0,4.0,55,0.00,,,0.00,Wunderground v.1.15,2013-06-12 20:02:00,
2013-06-12 16:04:00,70.3,53.4,29.88,SSE,152,3.0,4.0,55,0.00,,,0.00,Wunderground v.1.15,2013-06-12 20:04:00,
2013-06-12 16:05:00,70.4,53.5,29.88,NE,43,3.0,4.0,55,0.00,,,0.00,Wunderground v.1.15,2013-06-12 20:05:00,
2013-06-12 16:07:00,70.5,53.1,29.88,ESE,113,2.0,4.0,54,0.00,,,0.00,Wunderground v.1.15,2013-06-12 20:07:00,
2013-06-12 16:10:00,70.4,53.5,29.88,ESE,113,3.0,4.0,55,0.00,,,0.00,Wunderground v.1.15,2013-06-12 20:10:00,
2013-06-12 16:12:00,70.3,53.4,29.88,North,349,3.0,4.0,55,0.00,,,0.00,Wunderground v.1.15,2013-06-12 20:12:00,
2013-06-12 16:13:00,70.4,53.5,29.88,NNE,14,3.0,4.0,55,0.00,,,0.00,Wunderground v.1.15,2013-06-12 20:13:00,
2013-06-12 16:15:00,70.5,54.0,29.88,WSW,243,2.0,4.0,56,0.00,,,0.00,Wunderground v.1.15,2013-06-12 20:15:00,
2013-06-12 16:17:00,70.5,53.6,29.87,ESE,103,3.0,8.0,55,0.00,,,0.00,Wunderground v.1.15,2013-06-12 20:17:00,
2013-06-12 16:19:00,70.1,53.7,29.87,East,85,3.0,8.0,56,0.00,,,0.00,Wunderground v.1.15,2013-06-12 20:19:00,
2013-06-12 16:20:00,70.0,53.6,29.87,East,79,3.0,7.0,56,0.00,,,0.00,Wunderground v.1.15,2013-06-12 20:20:00,
2013-06-12 16:23:00,70.0,54.5,29.87,ESE,122,3.0,7.0,58,0.00,,,0.00,Wunderground v.1.15,2013-06-12 20:23:00,
2013-06-12 16:26:00,70.0,53.6,29.87,East,98,4.0,7.0,56,0.00,,,0.00,Wunderground v.1.15,2013-06-12 20:26:00,
2013-06-12 16:29:00,70.1,55.1,29.87,ESE,113,3.0,7.0,59,0.00,,,0.00,Wunderground v.1.15,2013-06-12 20:29:00,
2013-06-12 16:30:00,70.2,54.7,29.87,SSE,162,3.0,3.0,58,0.00,,,0.00,Wunderground v.1.15,2013-06-12 20:30:00,
2013-06-12 16:31:00,70.3,54.3,29.87,NW,316,2.0,3.0,57,0.00,,,0.00,Wunderground v.1.15,2013-06-12 20:31:00,
2013-06-12 16:33:00,70.7,55.2,29.87,NW,326,2.0,5.0,58,0.00,,,0.00,Wunderground v.1.15,2013-06-12 20:33:00,
2013-06-12 16:34:00,70.9,54.4,29.87,ENE,60,2.0,5.0,56,0.00,,,0.00,Wunderground v.1.15,2013-06-12 20:34:00,
2013-06-12 16:36:00,70.9,54.4,29.87,North,1,2.0,5.0,56,0.00,,,0.00,Wunderground v.1.15,2013-06-12 20:36:00,
2013-06-12 16:38:00,71.0,55.0,29.87,NNW,329,2.0,5.0,57,0.00,,,0.00,Wunderground v.1.15,2013-06-12 20:38:00,
2013-06-12 16:41:00,71.1,54.1,29.87,SSW,211,2.0,2.0,55,0.00,,,0.00,Wunderground v.1.15,2013-06-12 20:41:00,
2013-06-12 16:43:00,71.2,55.2,29.87,NW,320,2.0,2.0,57,0.00,,,0.00,Wunderground v.1.15,2013-06-12 20:43:00,
2013-06-12 16:45:00,71.6,55.1,29.87,SE,129,2.0,2.0,56,0.00,,,0.00,Wunderground v.1.15,2013-06-12 20:45:00,
2013-06-12 16:47:00,71.8,54.3,29.87,NE,49,1.0,3.0,54,0.00,,,0.00,Wunderground v.1.15,2013-06-12 20:47:00,
2013-06-12 16:49:00,71.5,53.5,29.87,NE,55,2.0,3.0,53,0.00,,,0.00,Wunderground v.1.15,2013-06-12 20:49:00,
2013-06-12 16:50:00,71.3,53.8,29.87,NW,324,2.0,2.0,54,0.00,,,0.00,Wunderground v.1.15,2013-06-12 20:50:00,
2013-06-12 16:52:00,71.3,53.8,29.87,North,9,1.0,2.0,54,0.00,,,0.00,Wunderground v.1.15,2013-06-12 20:52:00,
2013-06-12 16:53:00,71.4,54.4,29.87,NW,312,1.0,2.0,55,0.00,,,0.00,Wunderground v.1.15,2013-06-12 20:53:00,
2013-06-12 16:56:00,71.7,54.7,29.87,SE,131,1.0,2.0,55,0.00,,,0.00,Wunderground v.1.15,2013-06-12 20:56:00,
2013-06-12 16:57:00,71.8,54.3,29.87,WNW,294,2.0,2.0,54,0.00,,,0.00,Wunderground v.1.15,2013-06-12 20:57:00,
2013-06-12 16:58:00,71.8,54.3,29.87,ENE,73,1.0,2.0,54,0.00,,,0.00,Wunderground v.1.15,2013-06-12 20:58:00,
2013-06-12 17:00:00,71.6,54.1,29.87,NNW,343,1.0,2.0,54,0.00,,,0.00,Wunderground v.1.15,2013-06-12 21:00:00,
2013-06-12 17:02:00,71.5,54.0,29.86,ENE,70,1.0,2.0,54,0.00,,,0.00,Wunderground v.1.15,2013-06-12 21:02:00,
2013-06-12 17:04:00,71.6,54.6,29.86,ENE,74,1.0,8.0,55,0.00,,,0.00,Wunderground v.1.15,2013-06-12 21:04:00,
2013-06-12 17:05:00,71.6,53.6,29.86,NW,315,1.0,8.0,53,0.00,,,0.00,Wunderground v.1.15,2013-06-12 21:05:00,
2013-06-12 17:06:00,71.6,53.6,29.86,NNW,346,2.0,8.0,53,0.00,,,0.00,Wunderground v.1.15,2013-06-12 21:06:00,
2013-06-12 17:07:00,71.6,53.6,29.86,NW,318,2.0,8.0,53,0.00,,,0.00,Wunderground v.1.15,2013-06-12 21:07:00,
2013-06-12 17:11:00,71.8,54.3,29.86,NE,55,2.0,2.0,54,0.00,,,0.00,Wunderground v.1.15,2013-06-12 21:11:00,
2013-06-12 17:12:00,71.9,54.3,29.86,NW,316,2.0,3.0,54,0.00,,,0.00,Wunderground v.1.15,2013-06-12 21:12:00,
2013-06-12 17:13:00,72.0,53.9,29.86,NNW,340,2.0,3.0,53,0.00,,,0.00,Wunderground v.1.15,2013-06-12 21:13:00,
2013-06-12 17:16:00,72.3,55.2,29.87,ESE,121,1.0,3.0,55,0.00,,,0.00,Wunderground v.1.15,2013-06-12 21:16:00,
2013-06-12 17:18:00,72.1,53.0,29.86,East,81,1.0,3.0,51,0.00,,,0.00,Wunderground v.1.15,2013-06-12 21:18:00,
2013-06-12 17:21:00,71.7,53.1,29.87,West,274,1.0,3.0,52,0.00,,,0.00,Wunderground v.1.15,2013-06-12 21:21:00,
2013-06-12 17:25:00,71.8,53.2,29.87,NE,51,1.0,3.0,52,0.00,,,0.00,Wunderground v.1.15,2013-06-12 21:25:00,
2013-06-12 17:27:00,72.1,54.0,29.87,SE,125,1.0,3.0,53,0.00,,,0.00,Wunderground v.1.15,2013-06-12 21:27:00,
2013-06-12 17:31:00,71.0,52.5,29.87,ENE,72,2.0,4.0,52,0.00,,,0.00,Wunderground v.1.15,2013-06-12 21:31:00,
2013-06-12 17:32:00,70.8,52.3,29.87,ESE,103,2.0,4.0,52,0.00,,,0.00,Wunderground v.1.15,2013-06-12 21:32:00,
2013-06-12 17:33:00,70.7,52.7,29.87,ENE,65,2.0,4.0,53,0.00,,,0.00,Wunderground v.1.15,2013-06-12 21:33:00,
2013-06-12 17:35:00,70.6,53.1,29.87,East,95,3.0,5.0,54,0.00,,,0.00,Wunderground v.1.15,2013-06-12 21:35:00,
2013-06-12 17:37:00,70.4,53.0,29.86,East,87,3.0,5.0,54,0.00,,,0.00,Wunderground v.1.15,2013-06-12 21:37:00,
2013-06-12 17:39:00,70.4,53.0,29.86,East,82,3.0,5.0,54,0.00,,,0.00,Wunderground v.1.15,2013-06-12 21:39:00,
2013-06-12 17:41:00,70.2,52.8,29.86,ENE,70,3.0,3.0,54,0.00,,,0.00,Wunderground v.1.15,2013-06-12 21:41:00,
2013-06-12 17:42:00,70.2,52.8,29.86,East,87,3.0,3.0,54,0.00,,,0.00,Wunderground v.1.15,2013-06-12 21:42:00,
2013-06-12 17:43:00,70.2,53.3,29.86,ESE,122,3.0,3.0,55,0.00,,,0.00,Wunderground v.1.15,2013-06-12 21:43:00,
2013-06-12 17:47:00,70.2,52.8,29.86,East,96,3.0,3.0,54,0.00,,,0.00,Wunderground v.1.15,2013-06-12 21:47:00,
2013-06-12 17:48:00,70.1,53.2,29.86,ESE,110,3.0,3.0,55,0.00,,,0.00,Wunderground v.1.15,2013-06-12 21:48:00,
2013-06-12 17:51:00,70.0,52.6,29.87,ESE,110,3.0,3.0,54,0.00,,,0.00,Wunderground v.1.15,2013-06-12 21:51:00,
2013-06-12 17:54:00,70.5,53.6,29.87,West,264,2.0,3.0,55,0.00,,,0.00,Wunderground v.1.15,2013-06-12 21:54:00,
2013-06-12 17:56:00,70.8,53.3,29.87,NE,56,2.0,3.0,54,0.00,,,0.00,Wunderground v.1.15,2013-06-12 21:56:00,
2013-06-12 17:59:00,70.8,53.3,29.87,ENE,76,2.0,3.0,54,0.00,,,0.00,Wunderground v.1.15,2013-06-12 21:59:00,
2013-06-12 18:00:00,70.8,53.3,29.87,ENE,62,1.0,2.0,54,0.00,,,0.00,Wunderground v.1.15,2013-06-12 22:00:00,
2013-06-12 18:02:00,70.7,53.7,29.87,East,88,1.0,2.0,55,0.00,,,0.00,Wunderground v.1.15,2013-06-12 22:02:00,
2013-06-12 18:04:00,70.6,53.1,29.87,ESE,104,2.0,4.0,54,0.00,,,0.00,Wunderground v.1.15,2013-06-12 22:04:00,
2013-06-12 18:07:00,70.5,53.6,29.87,East,88,2.0,4.0,55,0.00,,,0.00,Wunderground v.1.15,2013-06-12 22:07:00,
2013-06-12 18:08:00,70.3,52.9,29.87,East,86,2.0,4.0,54,0.00,,,0.00,Wunderground v.1.15,2013-06-12 22:08:00,
2013-06-12 18:12:00,70.2,53.3,29.87,ENE,76,2.0,2.0,55,0.00,,,0.00,Wunderground v.1.15,2013-06-12 22:12:00,
2013-06-12 18:13:00,70.2,52.8,29.87,ENE,69,2.0,2.0,54,0.00,,,0.00,Wunderground v.1.15,2013-06-12 22:13:00,
2013-06-12 18:14:00,70.2,53.3,29.87,NE,35,2.0,2.0,55,0.00,,,0.00,Wunderground v.1.15,2013-06-12 22:14:00,
2013-06-12 18:16:00,70.1,53.2,29.87,NE,56,2.0,2.0,55,0.00,,,0.00,Wunderground v.1.15,2013-06-12 22:16:00,
2013-06-12 18:17:00,70.1,53.2,29.87,East,84,2.0,2.0,55,0.00,,,0.00,Wunderground v.1.15,2013-06-12 22:17:00,
2013-06-12 18:19:00,70.1,52.7,29.87,East,79,2.0,2.0,54,0.00,,,0.00,Wunderground v.1.15,2013-06-12 22:19:00,
2013-06-12 18:22:00,70.0,53.1,29.87,NE,54,2.0,3.0,55,0.00,,,0.00,Wunderground v.1.15,2013-06-12 22:22:00,
2013-06-12 18:25:00,70.1,53.7,29.87,ESE,104,2.0,3.0,56,0.00,,,0.00,Wunderground v.1.15,2013-06-12 22:25:00,
2013-06-12 18:26:00,70.1,53.7,29.87,East,88,1.0,3.0,56,0.00,,,0.00,Wunderground v.1.15,2013-06-12 22:26:00,
2013-06-12 18:27:00,70.1,53.7,29.86,East,89,1.0,3.0,56,0.00,,,0.00,Wunderground v.1.15,2013-06-12 22:27:00,
2013-06-12 18:29:00,70.1,53.2,29.86,ESE,121,1.0,4.0,55,0.00,,,0.00,Wunderground v.1.15,2013-06-12 22:29:00,
2013-06-12 18:32:00,70.1,53.7,29.86,ENE,68,1.0,2.0,56,0.00,,,0.00,Wunderground v.1.15,2013-06-12 22:32:00,
2013-06-12 18:33:00,70.1,53.2,29.86,NNE,30,1.0,3.0,55,0.00,,,0.00,Wunderground v.1.15,2013-06-12 22:33:00,
2013-06-12 18:35:00,70.1,54.2,29.86,SE,132,2.0,3.0,57,0.00,,,0.00,Wunderground v.1.15,2013-06-12 22:35:00,
2013-06-12 18:37:00,70.3,54.3,29.86,SE,136,1.0,3.0,57,0.00,,,0.00,Wunderground v.1.15,2013-06-12 22:37:00,
2013-06-12 18:39:00,70.6,54.1,29.86,NNW,340,1.0,4.0,56,0.00,,,0.00,Wunderground v.1.15,2013-06-12 22:39:00,
2013-06-12 18:40:00,70.6,53.6,29.85,NE,53,1.0,1.0,55,0.00,,,0.00,Wunderground v.1.15,2013-06-12 22:40:00,
2013-06-12 18:43:00,70.6,53.6,29.85,NE,37,1.0,2.0,55,0.00,,,0.00,Wunderground v.1.15,2013-06-12 22:43:00,
2013-06-12 18:44:00,70.5,53.1,29.85,ENE,72,1.0,2.0,54,0.00,,,0.00,Wunderground v.1.15,2013-06-12 22:44:00,
2013-06-12 18:47:00,70.5,53.6,29.85,East,79,1.0,2.0,55,0.00,,,0.00,Wunderground v.1.15,2013-06-12 22:47:00,
2013-06-12 18:48:00,70.5,53.6,29.85,NNE,30,1.0,2.0,55,0.00,,,0.00,Wunderground v.1.15,2013-06-12 22:48:00,
2013-06-12 18:49:00,70.5,53.6,29.85,NW,320,1.0,2.0,55,0.00,,,0.00,Wunderground v.1.15,2013-06-12 22:49:00,
2013-06-12 18:51:00,70.3,52.9,29.85,NE,54,1.0,5.0,54,0.00,,,0.00,Wunderground v.1.15,2013-06-12 22:51:00,
2013-06-12 18:52:00,70.1,53.2,29.85,NE,52,1.0,5.0,55,0.00,,,0.00,Wunderground v.1.15,2013-06-12 22:52:00,
2013-06-12 18:53:00,70.0,53.6,29.85,NE,44,1.0,5.0,56,0.00,,,0.00,Wunderground v.1.15,2013-06-12 22:53:00,
2013-06-12 18:54:00,70.0,53.6,29.85,NE,43,1.0,5.0,56,0.00,,,0.00,Wunderground v.1.15,2013-06-12 22:54:00,
2013-06-12 18:56:00,70.2,53.8,29.85,NE,47,1.0,5.0,56,0.00,,,0.00,Wunderground v.1.15,2013-06-12 22:56:00,
2013-06-12 18:58:00,70.2,53.3,29.85,ENE,58,1.0,5.0,55,0.00,,,0.00,Wunderground v.1.15,2013-06-12 22:58:00,
2013-06-12 19:00:00,70.2,53.8,29.85,East,84,1.0,1.0,56,0.00,,,0.00,Wunderground v.1.15,2013-06-12 23:00:00,
2013-06-12 19:01:00,70.3,53.4,29.85,NE,53,1.0,2.0,55,0.00,,,0.00,Wunderground v.1.15,2013-06-12 23:01:00,
2013-06-12 19:02:00,70.3,53.4,29.84,East,79,1.0,2.0,55,0.00,,,0.00,Wunderground v.1.15,2013-06-12 23:02:00,
2013-06-12 19:05:00,69.9,53.5,29.84,ESE,114,1.0,2.0,56,0.00,,,0.00,Wunderground v.1.15,2013-06-12 23:05:00,
2013-06-12 19:06:00,69.9,53.5,29.84,ESE,110,1.0,2.0,56,0.00,,,0.00,Wunderground v.1.15,2013-06-12 23:06:00,
2013-06-12 19:07:00,69.8,53.4,29.84,ESE,105,1.0,3.0,56,0.00,,,0.00,Wunderground v.1.15,2013-06-12 23:07:00,
2013-06-12 19:11:00,69.4,53.5,29.84,NNE,19,2.0,2.0,57,0.00,,,0.00,Wunderground v.1.15,2013-06-12 23:11:00,
2013-06-12 19:13:00,69.4,53.0,29.84,ESE,107,2.0,3.0,56,0.00,,,0.00,Wunderground v.1.15,2013-06-12 23:13:00,
2013-06-12 19:15:00,69.2,53.8,29.84,East,90,2.0,3.0,58,0.00,,,0.00,Wunderground v.1.15,2013-06-12 23:15:00,
2013-06-12 19:18:00,69.1,53.2,29.84,ESE,108,2.0,3.0,57,0.00,,,0.00,Wunderground v.1.15,2013-06-12 23:18:00,
2013-06-12 19:19:00,69.1,53.2,29.84,ESE,120,1.0,3.0,57,0.00,,,0.00,Wunderground v.1.15,2013-06-12 23:19:00,
2013-06-12 19:20:00,69.0,53.1,29.84,SE,124,1.0,1.0,57,0.00,,,0.00,Wunderground v.1.15,2013-06-12 23:20:00,
2013-06-12 19:22:00,68.9,53.5,29.84,East,101,1.0,1.0,58,0.00,,,0.00,Wunderground v.1.15,2013-06-12 23:22:00,
2013-06-12 19:26:00,68.7,53.3,29.84,East,80,0.0,1.0,58,0.00,,,0.00,Wunderground v.1.15,2013-06-12 23:26:00,
2013-06-12 19:27:00,68.7,53.3,29.84,East,80,0.0,1.0,58,0.00,,,0.00,Wunderground v.1.15,2013-06-12 23:27:00,
2013-06-12 19:28:00,68.7,53.8,29.84,East,81,0.0,1.0,59,0.00,,,0.00,Wunderground v.1.15,2013-06-12 23:28:00,
2013-06-12 19:32:00,68.5,53.1,29.84,East,80,0.0,1.0,58,0.00,,,0.00,Wunderground v.1.15,2013-06-12 23:32:00,
2013-06-12 19:33:00,68.4,53.0,29.84,NE,41,0.0,1.0,58,0.00,,,0.00,Wunderground v.1.15,2013-06-12 23:33:00,
2013-06-12 19:37:00,67.9,53.0,29.84,ENE,59,0.0,1.0,59,0.00,,,0.00,Wunderground v.1.15,2013-06-12 23:37:00,
2013-06-12 19:38:00,67.8,52.9,29.84,ENE,59,0.0,1.0,59,0.00,,,0.00,Wunderground v.1.15,2013-06-12 23:38:00,
2013-06-12 19:41:00,67.6,53.2,29.84,ENE,59,0.0,1.0,60,0.00,,,0.00,Wunderground v.1.15,2013-06-12 23:41:00,
2013-06-12 19:42:00,67.5,52.7,29.84,ENE,59,0.0,1.0,59,0.00,,,0.00,Wunderground v.1.15,2013-06-12 23:42:00,
2013-06-12 19:45:00,67.3,52.9,29.84,ENE,61,0.0,1.0,60,0.00,,,0.00,Wunderground v.1.15,2013-06-12 23:45:00,
2013-06-12 19:49:00,67.0,52.7,29.84,ENE,60,0.0,1.0,60,0.00,,,0.00,Wunderground v.1.15,2013-06-12 23:49:00,
2013-06-12 19:51:00,66.9,52.6,29.84,ENE,60,0.0,1.0,60,0.00,,,0.00,Wunderground v.1.15,2013-06-12 23:51:00,
2013-06-12 19:52:00,66.9,52.6,29.84,ENE,61,0.0,1.0,60,0.00,,,0.00,Wunderground v.1.15,2013-06-12 23:52:00,
2013-06-12 19:56:00,66.8,52.5,29.83,East,93,0.0,1.0,60,0.00,,,0.00,Wunderground v.1.15,2013-06-12 23:56:00,
2013-06-12 19:57:00,66.8,52.5,29.83,East,93,0.0,1.0,60,0.00,,,0.00,Wunderground v.1.15,2013-06-12 23:57:00,
2013-06-12 19:58:00,66.8,52.9,29.84,East,94,0.0,1.0,61,0.00,,,0.00,Wunderground v.1.15,2013-06-12 23:58:00,
2013-06-12 20:02:00,66.7,52.8,29.84,East,93,0.0,1.0,61,0.00,,,0.00,Wunderground v.1.15,2013-06-13 00:02:00,
2013-06-12 20:03:00,66.7,52.8,29.84,East,93,0.0,1.0,61,0.00,,,0.00,Wunderground v.1.15,2013-06-13 00:03:00,
2013-06-12 20:04:00,66.7,52.8,29.84,East,94,0.0,1.0,61,0.00,,,0.00,Wunderground v.1.15,2013-06-13 00:04:00,
2013-06-12 20:07:00,66.6,53.2,29.84,East,94,0.0,1.0,62,0.00,,,0.00,Wunderground v.1.15,2013-06-13 00:07:00,
2013-06-12 20:08:00,66.6,52.7,29.84,East,93,0.0,1.0,61,0.00,,,0.00,Wunderground v.1.15,2013-06-13 00:08:00,
2013-06-12 20:10:00,66.5,53.1,29.84,East,93,0.0,1.0,62,0.00,,,0.00,Wunderground v.1.15,2013-06-13 00:10:00,
2013-06-12 20:12:00,66.4,53.0,29.84,East,94,0.0,1.0,62,0.00,,,0.00,Wunderground v.1.15,2013-06-13 00:12:00,
2013-06-12 20:13:00,66.4,53.4,29.83,East,94,0.0,1.0,63,0.00,,,0.00,Wunderground v.1.15,2013-06-13 00:13:00,
2013-06-12 20:14:00,66.4,53.0,29.83,East,94,0.0,1.0,62,0.00,,,0.00,Wunderground v.1.15,2013-06-13 00:14:00,
2013-06-12 20:18:00,66.3,53.8,29.83,East,94,0.0,1.0,64,0.00,,,0.00,Wunderground v.1.15,2013-06-13 00:18:00,
2013-06-12 20:19:00,66.2,53.7,29.83,East,94,0.0,1.0,64,0.00,,,0.00,Wunderground v.1.15,2013-06-13 00:19:00,
2013-06-12 20:20:00,66.2,53.7,29.83,East,94,0.0,1.0,64,0.00,,,0.00,Wunderground v.1.15,2013-06-13 00:20:00,
2013-06-12 20:21:00,66.1,53.6,29.83,East,93,0.0,1.0,64,0.00,,,0.00,Wunderground v.1.15,2013-06-13 00:21:00,
2013-06-12 20:22:00,66.1,53.6,29.83,East,94,0.0,1.0,64,0.00,,,0.00,Wunderground v.1.15,2013-06-13 00:22:00,
2013-06-12 20:24:00,66.0,53.5,29.83,East,94,0.0,1.0,64,0.00,,,0.00,Wunderground v.1.15,2013-06-13 00:24:00,
2013-06-12 20:25:00,66.0,53.9,29.83,East,94,0.0,1.0,65,0.00,,,0.00,Wunderground v.1.15,2013-06-13 00:25:00,
2013-06-12 20:27:00,66.0,53.9,29.83,East,93,0.0,1.0,65,0.00,,,0.00,Wunderground v.1.15,2013-06-13 00:27:00,
2013-06-12 20:29:00,65.9,53.8,29.83,East,94,0.0,1.0,65,0.00,,,0.00,Wunderground v.1.15,2013-06-13 00:29:00,
2013-06-12 20:31:00,65.9,53.8,29.83,East,94,0.0,1.0,65,0.00,,,0.00,Wunderground v.1.15,2013-06-13 00:31:00,
2013-06-12 20:32:00,65.8,53.7,29.83,East,94,0.0,1.0,65,0.00,,,0.00,Wunderground v.1.15,2013-06-13 00:32:00,
2013-06-12 20:36:00,65.8,53.7,29.83,East,94,0.0,1.0,65,0.00,,,0.00,Wunderground v.1.15,2013-06-13 00:36:00,
2013-06-12 20:37:00,65.8,53.7,29.83,East,94,0.0,1.0,65,0.00,,,0.00,Wunderground v.1.15,2013-06-13 00:37:00,
2013-06-12 20:39:00,65.7,53.6,29.83,East,94,0.0,1.0,65,0.00,,,0.00,Wunderground v.1.15,2013-06-13 00:39:00,
2013-06-12 20:41:00,65.7,54.0,29.83,East,93,0.0,1.0,66,0.00,,,0.00,Wunderground v.1.15,2013-06-13 00:41:00,
2013-06-12 20:44:00,65.7,54.0,29.83,East,94,0.0,1.0,66,0.00,,,0.00,Wunderground v.1.15,2013-06-13 00:44:00,
2013-06-12 20:45:00,65.7,54.0,29.83,East,93,0.0,1.0,66,0.00,,,0.00,Wunderground v.1.15,2013-06-13 00:45:00,
2013-06-12 20:49:00,65.7,54.0,29.83,East,93,0.0,1.0,66,0.00,,,0.00,Wunderground v.1.15,2013-06-13 00:49:00,
2013-06-12 20:50:00,65.7,54.0,29.83,East,93,0.0,1.0,66,0.00,,,0.00,Wunderground v.1.15,2013-06-13 00:50:00,
2013-06-12 20:53:00,65.7,54.4,29.83,East,93,0.0,1.0,67,0.00,,,0.00,Wunderground v.1.15,2013-06-13 00:53:00,
2013-06-12 20:54:00,65.7,54.4,29.83,East,93,0.0,1.0,67,0.00,,,0.00,Wunderground v.1.15,2013-06-13 00:54:00,
2013-06-12 20:56:00,65.6,54.3,29.83,East,94,0.0,1.0,67,0.00,,,0.00,Wunderground v.1.15,2013-06-13 00:56:00,
2013-06-12 20:57:00,65.6,54.3,29.83,East,94,0.0,1.0,67,0.00,,,0.00,Wunderground v.1.15,2013-06-13 00:57:00,
2013-06-12 21:00:00,65.6,54.3,29.83,East,94,0.0,1.0,67,0.00,,,0.00,Wunderground v.1.15,2013-06-13 01:00:00,
2013-06-12 21:03:00,65.6,54.8,29.83,East,94,0.0,1.0,68,0.00,,,0.00,Wunderground v.1.15,2013-06-13 01:03:00,
2013-06-12 21:05:00,65.7,54.8,29.83,East,89,0.0,1.0,68,0.00,,,0.00,Wunderground v.1.15,2013-06-13 01:05:00,
2013-06-12 21:09:00,65.7,54.8,29.83,NNW,343,0.0,1.0,68,0.00,,,0.00,Wunderground v.1.15,2013-06-13 01:09:00,
2013-06-12 21:10:00,65.8,54.9,29.83,NNW,342,0.0,1.0,68,0.00,,,0.00,Wunderground v.1.15,2013-06-13 01:10:00,
2013-06-12 21:11:00,65.8,55.3,29.83,NNW,342,0.0,1.0,69,0.00,,,0.00,Wunderground v.1.15,2013-06-13 01:11:00,
2013-06-12 21:12:00,65.8,55.3,29.83,NNW,342,0.0,1.0,69,0.00,,,0.00,Wunderground v.1.15,2013-06-13 01:12:00,
2013-06-12 21:13:00,65.8,55.3,29.83,NNW,343,0.0,1.0,69,0.00,,,0.00,Wunderground v.1.15,2013-06-13 01:13:00,
2013-06-12 21:16:00,65.7,55.2,29.83,NNW,342,0.0,1.0,69,0.00,,,0.00,Wunderground v.1.15,2013-06-13 01:16:00,
2013-06-12 21:17:00,65.7,55.2,29.83,NNW,342,0.0,1.0,69,0.00,,,0.00,Wunderground v.1.15,2013-06-13 01:17:00,
2013-06-12 21:18:00,65.7,55.6,29.83,NNW,342,0.0,1.0,70,0.00,,,0.00,Wunderground v.1.15,2013-06-13 01:18:00,
2013-06-12 21:20:00,65.7,55.6,29.83,NNW,343,0.0,1.0,70,0.00,,,0.00,Wunderground v.1.15,2013-06-13 01:20:00,
2013-06-12 21:23:00,65.7,55.6,29.82,NNW,342,0.0,1.0,70,0.00,,,0.00,Wunderground v.1.15,2013-06-13 01:23:00,
2013-06-12 21:24:00,65.6,55.5,29.82,NNW,343,0.0,1.0,70,0.00,,,0.00,Wunderground v.1.15,2013-06-13 01:24:00,
2013-06-12 21:25:00,65.6,55.5,29.82,NNW,343,0.0,1.0,70,0.00,,,0.00,Wunderground v.1.15,2013-06-13 01:25:00,
2013-06-12 21:30:00,65.4,55.4,29.82,NNE,17,0.0,1.0,70,0.00,,,0.00,Wunderground v.1.15,2013-06-13 01:30:00,
2013-06-12 21:33:00,65.3,55.3,29.82,SE,126,0.0,1.0,70,0.00,,,0.00,Wunderground v.1.15,2013-06-13 01:33:00,
2013-06-12 21:35:00,65.3,55.3,29.82,SE,125,0.0,1.0,70,0.00,,,0.00,Wunderground v.1.15,2013-06-13 01:35:00,
2013-06-12 21:36:00,65.4,55.4,29.82,SE,126,0.0,1.0,70,0.00,,,0.00,Wunderground v.1.15,2013-06-13 01:36:00,
2013-06-12 21:37:00,65.4,55.4,29.82,SE,125,0.0,1.0,70,0.00,,,0.00,Wunderground v.1.15,2013-06-13 01:37:00,
2013-06-12 21:40:00,65.4,55.4,29.82,SE,125,0.0,1.0,70,0.00,,,0.00,Wunderground v.1.15,2013-06-13 01:40:00,
2013-06-12 21:43:00,65.4,55.7,29.82,SE,125,0.0,1.0,71,0.00,,,0.00,Wunderground v.1.15,2013-06-13 01:43:00,
2013-06-12 21:45:00,65.4,55.7,29.82,SE,125,0.0,1.0,71,0.00,,,0.00,Wunderground v.1.15,2013-06-13 01:45:00,
2013-06-12 21:47:00,65.4,55.7,29.82,SE,125,0.0,1.0,71,0.00,,,0.00,Wunderground v.1.15,2013-06-13 01:47:00,
2013-06-12 21:48:00,65.3,55.7,29.82,SE,125,0.0,1.0,71,0.00,,,0.00,Wunderground v.1.15,2013-06-13 01:48:00,
2013-06-12 21:49:00,65.4,55.7,29.82,SE,125,0.0,1.0,71,0.00,,,0.00,Wunderground v.1.15,2013-06-13 01:49:00,
2013-06-12 21:52:00,65.4,56.1,29.82,East,98,0.0,1.0,72,0.00,,,0.00,Wunderground v.1.15,2013-06-13 01:52:00,
2013-06-12 21:53:00,65.4,56.5,29.82,East,98,0.0,1.0,73,0.00,,,0.00,Wunderground v.1.15,2013-06-13 01:53:00,
2013-06-12 21:54:00,65.4,56.5,29.82,East,98,0.0,1.0,73,0.00,,,0.00,Wunderground v.1.15,2013-06-13 01:54:00,
2013-06-12 21:56:00,65.5,56.6,29.82,East,98,0.0,1.0,73,0.00,,,0.00,Wunderground v.1.15,2013-06-13 01:56:00,
2013-06-12 21:59:00,65.6,56.7,29.82,East,98,0.0,1.0,73,0.00,,,0.00,Wunderground v.1.15,2013-06-13 01:59:00,
2013-06-12 22:01:00,65.6,56.7,29.82,East,98,0.0,1.0,73,0.00,,,0.00,Wunderground v.1.15,2013-06-13 02:01:00,
2013-06-12 22:03:00,65.6,56.7,29.82,SE,134,0.0,1.0,73,0.00,,,0.00,Wunderground v.1.15,2013-06-13 02:03:00,
2013-06-12 22:04:00,65.6,57.1,29.81,SE,133,0.0,1.0,74,0.00,,,0.00,Wunderground v.1.15,2013-06-13 02:04:00,
2013-06-12 22:06:00,65.7,56.8,29.81,SE,134,0.0,1.0,73,0.00,,,0.00,Wunderground v.1.15,2013-06-13 02:06:00,
2013-06-12 22:08:00,65.7,56.8,29.81,SE,134,0.0,1.0,73,0.00,,,0.00,Wunderground v.1.15,2013-06-13 02:08:00,
2013-06-12 22:09:00,65.7,56.8,29.81,SE,134,0.0,1.0,73,0.00,,,0.00,Wunderground v.1.15,2013-06-13 02:09:00,
2013-06-12 22:11:00,65.7,57.2,29.81,SE,134,0.0,1.0,74,0.00,,,0.00,Wunderground v.1.15,2013-06-13 02:11:00,
2013-06-12 22:12:00,65.7,57.2,29.81,SE,134,0.0,1.0,74,0.00,,,0.00,Wunderground v.1.15,2013-06-13 02:12:00,
2013-06-12 22:14:00,65.7,57.2,29.81,SE,134,0.0,1.0,74,0.00,,,0.00,Wunderground v.1.15,2013-06-13 02:14:00,
2013-06-12 22:17:00,65.8,57.3,29.81,SE,134,0.0,1.0,74,0.00,,,0.00,Wunderground v.1.15,2013-06-13 02:17:00,
2013-06-12 22:18:00,65.8,57.3,29.81,SE,134,0.0,1.0,74,0.00,,,0.00,Wunderground v.1.15,2013-06-13 02:18:00,
2013-06-12 22:19:00,65.8,57.3,29.81,SE,134,0.0,1.0,74,0.00,,,0.00,Wunderground v.1.15,2013-06-13 02:19:00,
2013-06-12 22:20:00,65.9,57.7,29.81,SE,134,0.0,1.0,75,0.00,,,0.00,Wunderground v.1.15,2013-06-13 02:20:00,
2013-06-12 22:22:00,65.9,57.7,29.82,SE,134,0.0,1.0,75,0.00,,,0.00,Wunderground v.1.15,2013-06-13 02:22:00,
2013-06-12 22:24:00,65.9,57.7,29.81,SE,133,0.0,1.0,75,0.00,,,0.00,Wunderground v.1.15,2013-06-13 02:24:00,
2013-06-12 22:27:00,65.9,57.7,29.81,SE,134,0.0,1.0,75,0.00,,,0.00,Wunderground v.1.15,2013-06-13 02:27:00,
2013-06-12 22:29:00,65.9,57.7,29.81,SE,134,0.0,1.0,75,0.00,,,0.00,Wunderground v.1.15,2013-06-13 02:29:00,
2013-06-12 22:31:00,65.9,57.7,29.81,SE,134,0.0,1.0,75,0.00,,,0.00,Wunderground v.1.15,2013-06-13 02:31:00,
2013-06-12 22:32:00,65.9,57.7,29.81,SE,134,0.0,1.0,75,0.00,,,0.00,Wunderground v.1.15,2013-06-13 02:32:00,
2013-06-12 22:34:00,65.8,57.7,29.81,SE,134,0.0,1.0,75,0.00,,,0.00,Wunderground v.1.15,2013-06-13 02:34:00,
2013-06-12 22:36:00,65.8,57.7,29.81,SE,134,0.0,1.0,75,0.00,,,0.00,Wunderground v.1.15,2013-06-13 02:36:00,
2013-06-12 22:37:00,65.8,57.7,29.81,SE,134,0.0,1.0,75,0.00,,,0.00,Wunderground v.1.15,2013-06-13 02:37:00,
2013-06-12 22:39:00,65.8,57.7,29.81,East,81,0.0,1.0,75,0.00,,,0.00,Wunderground v.1.15,2013-06-13 02:39:00,
2013-06-12 22:41:00,65.9,57.7,29.81,SE,136,0.0,1.0,75,0.00,,,0.00,Wunderground v.1.15,2013-06-13 02:41:00,
2013-06-12 22:42:00,66.0,57.1,29.81,South,173,0.0,1.0,73,0.00,,,0.00,Wunderground v.1.15,2013-06-13 02:42:00,
2013-06-12 22:43:00,66.1,57.2,29.81,ESE,111,0.0,1.0,73,0.00,,,0.00,Wunderground v.1.15,2013-06-13 02:43:00,
2013-06-12 22:46:00,66.7,57.4,29.80,SE,125,0.0,1.0,72,0.00,,,0.00,Wunderground v.1.15,2013-06-13 02:46:00,
2013-06-12 22:47:00,66.9,57.2,29.81,SSE,166,0.0,2.0,71,0.00,,,0.00,Wunderground v.1.15,2013-06-13 02:47:00,
2013-06-12 22:49:00,67.2,57.1,29.81,East,98,0.0,3.0,70,0.00,,,0.00,Wunderground v.1.15,2013-06-13 02:49:00,
2013-06-12 22:50:00,67.4,56.9,29.81,SSE,150,1.0,1.0,69,0.00,,,0.00,Wunderground v.1.15,2013-06-13 02:50:00,
2013-06-12 22:51:00,67.7,57.2,29.81,South,169,1.0,1.0,69,0.00,,,0.00,Wunderground v.1.15,2013-06-13 02:51:00,
2013-06-12 22:55:00,68.3,57.3,29.81,SSE,149,1.0,2.0,68,0.00,,,0.00,Wunderground v.1.15,2013-06-13 02:55:00,
2013-06-12 22:56:00,68.4,57.4,29.81,SE,124,1.0,3.0,68,0.00,,,0.00,Wunderground v.1.15,2013-06-13 02:56:00,
2013-06-12 22:57:00,68.5,57.1,29.81,South,187,2.0,3.0,67,0.00,,,0.00,Wunderground v.1.15,2013-06-13 02:57:00,
2013-06-12 22:59:00,68.7,57.3,29.80,SE,131,2.0,3.0,67,0.00,,,0.00,Wunderground v.1.15,2013-06-13 02:59:00,
2013-06-12 23:00:00,68.8,57.4,29.80,SE,130,2.0,2.0,67,0.00,,,0.00,Wunderground v.1.15,2013-06-13 03:00:00,
2013-06-12 23:02:00,68.9,57.5,29.80,East,98,2.0,2.0,67,0.00,,,0.00,Wunderground v.1.15,2013-06-13 03:02:00,
2013-06-12 23:03:00,68.9,57.9,29.80,East,97,2.0,2.0,68,0.00,,,0.00,Wunderground v.1.15,2013-06-13 03:03:00,
2013-06-12 23:06:00,68.9,57.9,29.80,ESE,113,2.0,2.0,68,0.00,,,0.00,Wunderground v.1.15,2013-06-13 03:06:00,
2013-06-12 23:08:00,68.8,57.8,29.80,SE,129,2.0,3.0,68,0.00,,,0.00,Wunderground v.1.15,2013-06-13 03:08:00,
2013-06-12 23:09:00,68.7,58.1,29.80,East,86,2.0,3.0,69,0.00,,,0.00,Wunderground v.1.15,2013-06-13 03:09:00,
2013-06-12 23:10:00,68.7,58.1,29.80,SE,124,2.0,2.0,69,0.00,,,0.00,Wunderground v.1.15,2013-06-13 03:10:00,
2013-06-12 23:11:00,68.7,58.1,29.80,SW,232,2.0,2.0,69,0.00,,,0.00,Wunderground v.1.15,2013-06-13 03:11:00,
2013-06-12 23:14:00,68.7,58.1,29.80,ESE,108,1.0,2.0,69,0.00,,,0.00,Wunderground v.1.15,2013-06-13 03:14:00,
2013-06-12 23:15:00,68.6,58.0,29.80,ESE,122,1.0,2.0,69,0.00,,,0.00,Wunderground v.1.15,2013-06-13 03:15:00,
2013-06-12 23:16:00,68.6,58.0,29.80,ESE,122,1.0,2.0,69,0.00,,,0.00,Wunderground v.1.15,2013-06-13 03:16:00,
2013-06-12 23:18:00,68.5,58.3,29.80,ESE,104,1.0,2.0,70,0.00,,,0.00,Wunderground v.1.15,2013-06-13 03:18:00,
2013-06-12 23:19:00,68.5,58.3,29.80,ESE,105,1.0,2.0,70,0.00,,,0.00,Wunderground v.1.15,2013-06-13 03:19:00,
2013-06-12 23:22:00,68.3,58.5,29.80,ESE,105,0.0,1.0,71,0.00,,,0.00,Wunderground v.1.15,2013-06-13 03:22:00,
2013-06-12 23:25:00,68.1,58.3,29.79,South,180,0.0,1.0,71,0.00,,,0.00,Wunderground v.1.15,2013-06-13 03:25:00,
2013-06-12 23:26:00,68.1,58.7,29.80,South,179,0.0,1.0,72,0.00,,,0.00,Wunderground v.1.15,2013-06-13 03:26:00,
2013-06-12 23:27:00,68.1,58.7,29.80,South,180,0.0,1.0,72,0.00,,,0.00,Wunderground v.1.15,2013-06-13 03:27:00,
2013-06-12 23:29:00,68.0,59.8,29.80,SW,219,0.0,1.0,75,0.00,,,0.00,Wunderground v.1.15,2013-06-13 03:29:00,
2013-06-12 23:30:00,67.9,59.7,29.80,SW,219,0.0,1.0,75,0.00,,,0.00,Wunderground v.1.15,2013-06-13 03:30:00,
2013-06-12 23:32:00,67.7,59.9,29.80,SW,219,0.0,1.0,76,0.00,,,0.00,Wunderground v.1.15,2013-06-13 03:32:00,
2013-06-12 23:35:00,67.3,59.5,29.80,SW,219,0.0,1.0,76,0.00,,,0.00,Wunderground v.1.15,2013-06-13 03:35:00,
2013-06-12 23:36:00,67.2,59.4,29.80,SW,219,0.0,1.0,76,0.00,,,0.00,Wunderground v.1.15,2013-06-13 03:36:00,
2013-06-12 23:37:00,67.1,58.9,29.79,SW,219,0.0,1.0,75,0.00,,,0.00,Wunderground v.1.15,2013-06-13 03:37:00,
2013-06-12 23:38:00,67.0,59.9,29.79,SSW,197,0.0,1.0,78,0.00,,,0.00,Wunderground v.1.15,2013-06-13 03:38:00,
2013-06-12 23:41:00,66.8,60.1,29.79,East,82,0.0,1.0,79,0.00,,,0.00,Wunderground v.1.15,2013-06-13 03:41:00,
2013-06-12 23:42:00,66.7,60.0,29.79,East,79,0.0,2.0,79,0.00,,,0.00,Wunderground v.1.15,2013-06-13 03:42:00,
2013-06-12 23:43:00,66.6,59.2,29.78,East,79,0.0,2.0,77,0.00,,,0.00,Wunderground v.1.15,2013-06-13 03:43:00,
2013-06-12 23:45:00,66.6,59.9,29.78,ESE,107,1.0,2.0,79,0.00,,,0.00,Wunderground v.1.15,2013-06-13 03:45:00,
2013-06-12 23:47:00,66.6,59.5,29.78,ESE,105,1.0,2.0,78,0.00,,,0.00,Wunderground v.1.15,2013-06-13 03:47:00,
2013-06-12 23:49:00,66.5,59.8,29.78,ESE,104,1.0,2.0,79,0.00,,,0.00,Wunderground v.1.15,2013-06-13 03:49:00,
2013-06-12 23:50:00,66.5,59.8,29.78,ESE,104,1.0,1.0,79,0.00,,,0.00,Wunderground v.1.15,2013-06-13 03:50:00,
2013-06-12 23:51:00,66.4,59.7,29.78,ENE,72,1.0,2.0,79,0.00,,,0.00,Wunderground v.1.15,2013-06-13 03:51:00,
2013-06-12 23:53:00,66.4,59.7,29.78,ENE,72,1.0,2.0,79,0.00,,,0.01,Wunderground v.1.15,2013-06-13 03:53:00,
2013-06-12 23:54:00,66.3,59.6,29.78,ENE,72,0.0,2.0,79,0.00,,,0.01,Wunderground v.1.15,2013-06-13 03:54:00,
2013-06-12 23:55:00,66.3,59.9,29.78,ENE,72,0.0,2.0,80,0.00,,,0.01,Wunderground v.1.15,2013-06-13 03:55:00,
2013-06-12 23:57:00,66.2,59.8,29.78,ENE,72,0.0,2.0,80,0.00,,,0.01,Wunderground v.1.15,2013-06-13 03:57:00,
2013-06-12 23:59:00,66.0,60.0,29.78,SE,134,0.0,2.0,81,0.00,,,0.01,Wunderground v.1.15,2013-06-13 03:59:00,